Seleccionar fecha


Semana del 10-04-2018 al 17-04-2018

Fecha Temperaturas Humedad relativa Presión atmosférica Precipitaciones Dirección viento Velocidad del viento Velocidad de racha Iluminancia
Tue 10, 12:08 AM7,7 ºC81,4 %957 hPa0,00 l/m2 0º N 0,0 m/s0,00 m/s0 Lux
Tue 10, 12:18 AM7,4 ºC83,3 %957 hPa0,00 l/m2 0º N 0,0 m/s0,00 m/s0 Lux
Tue 10, 12:28 AM7,3 ºC84,3 %957 hPa0,00 l/m2 0º N 0,0 m/s0,00 m/s0 Lux
Tue 10, 12:38 AM7,2 ºC84,7 %957 hPa0,00 l/m2 0º N 0,0 m/s0,00 m/s0 Lux
Tue 10, 12:48 AM7,5 ºC84,5 %957 hPa0,00 l/m2 0º N 0,0 m/s0,00 m/s0 Lux
Tue 10, 12:58 AM7,6 ºC83,2 %957 hPa0,00 l/m2 0º N 0,0 m/s0,00 m/s0 Lux
Tue 10, 01:08 AM7,7 ºC83,1 %957 hPa0,00 l/m2 0º N 0,0 m/s0,00 m/s0 Lux
Tue 10, 01:18 AM7,7 ºC82,9 %957 hPa0,00 l/m2 0º N 0,0 m/s0,00 m/s0 Lux
Tue 10, 01:28 AM7,7 ºC83,2 %957 hPa0,00 l/m2 0º N 0,0 m/s0,00 m/s0 Lux
Tue 10, 01:38 AM8,0 ºC81,7 %957 hPa0,00 l/m2 0º N 0,0 m/s0,00 m/s0 Lux
Tue 10, 01:48 AM8,2 ºC80,3 %957 hPa0,00 l/m2 0º N 0,0 m/s0,00 m/s0 Lux
Tue 10, 01:58 AM8,2 ºC80,1 %957 hPa0,00 l/m2 0º N 0,0 m/s0,00 m/s0 Lux
Tue 10, 02:08 AM8,3 ºC79,9 %957 hPa0,00 l/m2 0º N 0,0 m/s0,00 m/s0 Lux
Tue 10, 02:18 AM8,4 ºC80,1 %957 hPa0,00 l/m2 0º N 0,0 m/s0,00 m/s0 Lux
Tue 10, 02:28 AM8,5 ºC79,5 %957 hPa0,00 l/m2 0º N 0,0 m/s0,00 m/s0 Lux
Tue 10, 02:38 AM8,7 ºC78,9 %956 hPa0,00 l/m2 0º N 0,0 m/s0,00 m/s0 Lux
Tue 10, 02:48 AM8,7 ºC78,9 %956 hPa0,00 l/m2 0º N 0,0 m/s0,00 m/s0 Lux
Tue 10, 02:58 AM8,8 ºC78,2 %956 hPa0,00 l/m2 0º N 0,0 m/s0,00 m/s0 Lux
Tue 10, 03:08 AM8,8 ºC78,2 %956 hPa0,00 l/m2 0º N 0,0 m/s0,00 m/s0 Lux
Tue 10, 03:18 AM8,7 ºC78,6 %956 hPa0,00 l/m2 0º N 0,0 m/s0,00 m/s0 Lux
Tue 10, 03:28 AM8,7 ºC78,8 %956 hPa0,00 l/m2 0º N 0,0 m/s0,00 m/s0 Lux
Tue 10, 03:38 AM8,7 ºC78,8 %956 hPa0,00 l/m2 0º N 0,0 m/s0,00 m/s0 Lux
Tue 10, 03:48 AM8,9 ºC78,2 %956 hPa0,00 l/m2 0º N 0,0 m/s0,00 m/s0 Lux
Tue 10, 03:58 AM8,8 ºC78,7 %955 hPa0,00 l/m2 0º N 0,0 m/s0,00 m/s0 Lux
Tue 10, 04:08 AM8,9 ºC78,7 %955 hPa0,00 l/m2 0º N 0,0 m/s0,00 m/s0 Lux
Tue 10, 04:18 AM9,0 ºC78,3 %955 hPa0,00 l/m2 0º N 0,0 m/s0,00 m/s0 Lux
Tue 10, 04:28 AM8,9 ºC79,0 %955 hPa0,00 l/m2 0º N 0,0 m/s0,00 m/s0 Lux
Tue 10, 04:38 AM8,8 ºC79,6 %955 hPa0,00 l/m2 0º N 0,0 m/s0,00 m/s0 Lux
Tue 10, 04:48 AM8,8 ºC79,9 %955 hPa0,00 l/m2 0º N 0,0 m/s0,00 m/s0 Lux
Tue 10, 04:58 AM8,6 ºC80,8 %955 hPa0,00 l/m2 0º N 0,0 m/s0,00 m/s0 Lux
Tue 10, 05:08 AM8,6 ºC80,7 %955 hPa0,00 l/m2 0º N 0,0 m/s0,00 m/s0 Lux
Tue 10, 05:18 AM8,6 ºC81,5 %955 hPa0,00 l/m2 0º N 0,0 m/s0,00 m/s0 Lux
Tue 10, 05:28 AM8,6 ºC81,8 %955 hPa0,00 l/m2 0º N 0,0 m/s0,00 m/s0 Lux
Tue 10, 05:38 AM8,9 ºC79,6 %955 hPa0,00 l/m2 0º N 0,0 m/s0,00 m/s0 Lux
Tue 10, 05:48 AM9,0 ºC79,7 %955 hPa0,00 l/m2 0º N 0,0 m/s0,00 m/s0 Lux
Tue 10, 05:58 AM8,9 ºC80,2 %955 hPa0,00 l/m2 0º N 0,0 m/s0,00 m/s0 Lux
Tue 10, 06:08 AM9,0 ºC78,3 %955 hPa0,00 l/m2 0º N 0,0 m/s0,00 m/s0 Lux
Tue 10, 06:18 AM8,5 ºC80,7 %954 hPa0,00 l/m2 0º N 0,0 m/s0,00 m/s0 Lux
Tue 10, 06:28 AM8,7 ºC78,7 %954 hPa0,00 l/m2 0º N 0,0 m/s0,00 m/s0 Lux
Tue 10, 06:38 AM9,1 ºC76,0 %954 hPa0,00 l/m2 0º N 0,0 m/s0,00 m/s0 Lux
Tue 10, 06:48 AM9,0 ºC76,1 %954 hPa0,00 l/m2 0º N 0,0 m/s0,00 m/s0 Lux
Tue 10, 06:58 AM8,0 ºC80,1 %954 hPa0,00 l/m2 0º N 0,0 m/s0,00 m/s0 Lux
Tue 10, 07:08 AM7,3 ºC83,4 %954 hPa0,00 l/m2 0º N 0,0 m/s0,00 m/s0 Lux
Tue 10, 07:18 AM7,4 ºC83,3 %954 hPa0,00 l/m2 0º N 0,0 m/s0,00 m/s0 Lux
Tue 10, 07:28 AM7,5 ºC82,9 %954 hPa0,00 l/m2 0º N 0,0 m/s0,00 m/s0 Lux
Tue 10, 07:38 AM7,4 ºC84,1 %954 hPa0,00 l/m2 0º N 0,0 m/s0,00 m/s0 Lux
Tue 10, 07:48 AM7,6 ºC82,4 %954 hPa0,00 l/m2 0º N 0,0 m/s0,00 m/s0 Lux
Tue 10, 07:58 AM7,3 ºC84,9 %953 hPa0,00 l/m2 0º N 0,0 m/s0,00 m/s0 Lux
Tue 10, 08:08 AM7,6 ºC84,2 %953 hPa0,00 l/m2 0º N 0,0 m/s0,00 m/s0 Lux
Tue 10, 08:18 AM7,8 ºC83,4 %953 hPa0,00 l/m2 0º N 0,0 m/s0,00 m/s0 Lux
Tue 10, 08:28 AM6,8 ºC87,5 %953 hPa0,00 l/m2 0º N 0,0 m/s0,00 m/s0 Lux
Tue 10, 08:38 AM7,4 ºC86,5 %953 hPa0,00 l/m2 0º N 0,0 m/s0,00 m/s0 Lux
Tue 10, 08:48 AM8,4 ºC80,9 %953 hPa0,00 l/m2 0º N 0,0 m/s0,00 m/s0 Lux
Tue 10, 08:58 AM9,4 ºC73,3 %953 hPa0,00 l/m2 0º N 0,0 m/s0,00 m/s0 Lux
Tue 10, 09:08 AM10,1 ºC68,2 %953 hPa0,00 l/m2 0º N 0,0 m/s0,00 m/s0 Lux
Tue 10, 09:18 AM10,4 ºC65,8 %953 hPa0,00 l/m2 0º N 0,0 m/s0,00 m/s0 Lux
Tue 10, 09:28 AM10,9 ºC63,6 %953 hPa0,00 l/m2 0º N 0,0 m/s0,00 m/s0 Lux
Tue 10, 09:38 AM11,2 ºC63,4 %952 hPa0,00 l/m2 0º N 0,0 m/s0,00 m/s0 Lux
Tue 10, 09:48 AM11,4 ºC60,7 %952 hPa0,00 l/m2 0º N 0,0 m/s0,00 m/s0 Lux
Tue 10, 09:58 AM12,0 ºC60,3 %952 hPa0,00 l/m2 0º N 0,0 m/s0,00 m/s0 Lux
Tue 10, 10:08 AM11,4 ºC60,7 %952 hPa0,00 l/m2 0º N 0,0 m/s0,00 m/s0 Lux
Tue 10, 10:18 AM11,4 ºC61,1 %952 hPa0,00 l/m2 0º N 0,0 m/s0,00 m/s0 Lux
Tue 10, 10:28 AM11,5 ºC60,8 %952 hPa0,00 l/m2 0º N 0,0 m/s0,00 m/s0 Lux
Tue 10, 10:38 AM11,9 ºC63,3 %952 hPa0,00 l/m2 0º N 0,0 m/s0,00 m/s0 Lux
Tue 10, 10:48 AM11,3 ºC65,5 %952 hPa0,00 l/m2 0º N 0,0 m/s0,00 m/s0 Lux
Tue 10, 10:58 AM12,9 ºC58,7 %952 hPa0,00 l/m2 0º N 0,0 m/s0,00 m/s0 Lux
Tue 10, 11:08 AM13,0 ºC55,3 %952 hPa0,00 l/m2 0º N 0,0 m/s0,00 m/s0 Lux
Tue 10, 11:18 AM12,9 ºC58,0 %951 hPa0,00 l/m2 0º N 0,0 m/s0,00 m/s0 Lux
Tue 10, 11:28 AM12,2 ºC63,6 %951 hPa0,00 l/m2 0º N 0,0 m/s0,00 m/s0 Lux
Tue 10, 11:38 AM12,8 ºC59,4 %951 hPa0,08 l/m2 0º N 0,0 m/s0,00 m/s0 Lux
Tue 10, 11:48 AM12,7 ºC58,3 %951 hPa0,46 l/m2 0º N 112,9 m/s401,90 m/s0 Lux
Tue 10, 12:24 PM11,5 ºC68,5 %951 hPa0,08 l/m2 0º N 3,1 m/s5,00 m/s0 Lux
Tue 10, 12:34 PM11,7 ºC67,7 %951 hPa0,00 l/m2 0º N 2,4 m/s4,00 m/s0 Lux
Tue 10, 12:44 PM11,4 ºC70,8 %951 hPa0,00 l/m2 0º N 2,2 m/s4,20 m/s0 Lux
Tue 10, 12:54 PM11,6 ºC70,0 %950 hPa0,00 l/m2 0º N 2,5 m/s4,40 m/s0 Lux
Tue 10, 01:04 PM12,2 ºC67,0 %950 hPa0,00 l/m2 0º N 3,8 m/s5,30 m/s0 Lux
Tue 10, 01:14 PM12,1 ºC66,2 %950 hPa0,00 l/m2 0º N 3,0 m/s5,40 m/s0 Lux
Tue 10, 01:24 PM12,7 ºC65,4 %950 hPa0,00 l/m2 0º N 2,8 m/s4,10 m/s0 Lux
Tue 10, 01:34 PM13,3 ºC64,8 %949 hPa0,00 l/m2 0º N 2,6 m/s3,50 m/s0 Lux
Tue 10, 01:44 PM12,8 ºC64,8 %949 hPa0,00 l/m2 0º N 3,2 m/s4,70 m/s0 Lux
Tue 10, 01:54 PM12,9 ºC62,8 %949 hPa0,00 l/m2 0º N 3,8 m/s6,70 m/s0 Lux
Tue 10, 02:04 PM13,4 ºC62,1 %949 hPa0,00 l/m2 0º N 3,0 m/s5,50 m/s0 Lux
Tue 10, 02:14 PM13,6 ºC64,8 %948 hPa0,00 l/m2 0º N 5,1 m/s6,70 m/s0 Lux
Tue 10, 02:24 PM12,9 ºC65,9 %948 hPa0,00 l/m2 0º N 2,6 m/s5,60 m/s0 Lux
Tue 10, 02:34 PM14,7 ºC62,4 %948 hPa0,00 l/m2 0º N 3,6 m/s5,40 m/s0 Lux
Tue 10, 02:44 PM13,6 ºC61,7 %948 hPa0,00 l/m2 0º N 2,4 m/s4,60 m/s0 Lux
Tue 10, 02:54 PM13,6 ºC66,9 %947 hPa0,00 l/m2 0º N 3,7 m/s4,50 m/s0 Lux
Tue 10, 03:04 PM12,6 ºC70,3 %947 hPa0,00 l/m2 0º N 4,8 m/s7,40 m/s0 Lux
Tue 10, 03:14 PM11,9 ºC75,8 %947 hPa0,08 l/m2 0º N 4,3 m/s6,20 m/s0 Lux
Tue 10, 03:24 PM11,5 ºC79,1 %947 hPa0,50 l/m2 0º N 6,1 m/s7,90 m/s0 Lux
Tue 10, 03:34 PM11,6 ºC78,8 %947 hPa0,83 l/m2 0º N 6,3 m/s11,20 m/s0 Lux
Tue 10, 03:44 PM11,7 ºC81,5 %946 hPa0,50 l/m2 0º N 5,6 m/s8,90 m/s0 Lux
Tue 10, 03:54 PM11,4 ºC84,6 %946 hPa0,58 l/m2 0º N 4,7 m/s7,60 m/s0 Lux
Tue 10, 04:04 PM11,8 ºC79,7 %946 hPa0,67 l/m2 0º N 5,1 m/s7,80 m/s0 Lux
Tue 10, 04:14 PM11,9 ºC78,4 %946 hPa0,50 l/m2 0º N 4,6 m/s8,50 m/s0 Lux
Tue 10, 04:24 PM11,9 ºC81,5 %945 hPa0,58 l/m2 0º N 4,7 m/s6,20 m/s0 Lux
Tue 10, 04:34 PM12,0 ºC80,6 %945 hPa0,67 l/m2 0º N 6,2 m/s8,30 m/s0 Lux
Tue 10, 04:44 PM12,4 ºC78,6 %945 hPa0,58 l/m2 0º N 6,1 m/s9,00 m/s0 Lux
Tue 10, 04:54 PM12,3 ºC81,1 %944 hPa0,58 l/m2 0º N 7,8 m/s10,90 m/s0 Lux
Tue 10, 05:04 PM12,3 ºC80,6 %944 hPa0,92 l/m2 0º N 6,6 m/s9,00 m/s0 Lux
Tue 10, 05:14 PM11,9 ºC84,1 %944 hPa1,08 l/m2 0º N 5,9 m/s8,20 m/s0 Lux
Tue 10, 05:24 PM12,1 ºC81,6 %944 hPa1,33 l/m2 0º N 5,3 m/s6,50 m/s0 Lux
Tue 10, 05:34 PM12,0 ºC83,9 %944 hPa1,42 l/m2 0º N 5,7 m/s7,90 m/s0 Lux
Tue 10, 05:44 PM11,9 ºC86,0 %944 hPa1,75 l/m2 0º N 4,5 m/s6,90 m/s0 Lux
Tue 10, 05:54 PM12,0 ºC85,5 %944 hPa2,17 l/m2 0º N 5,0 m/s7,50 m/s0 Lux
Tue 10, 06:04 PM11,3 ºC93,0 %944 hPa1,42 l/m2 0º N 1,6 m/s5,10 m/s0 Lux
Tue 10, 06:14 PM10,9 ºC97,3 %943 hPa2,25 l/m2 0º N 5,7 m/s11,70 m/s0 Lux
Tue 10, 06:24 PM10,6 ºC98,4 %944 hPa1,25 l/m2 0º N 8,2 m/s12,80 m/s0 Lux
Tue 10, 06:34 PM10,6 ºC96,3 %944 hPa1,00 l/m2 0º N 4,6 m/s6,10 m/s0 Lux
Tue 10, 06:44 PM10,9 ºC94,0 %943 hPa0,17 l/m2 0º N 5,4 m/s8,00 m/s0 Lux
Tue 10, 06:54 PM11,1 ºC90,5 %944 hPa0,00 l/m2 0º N 4,8 m/s7,20 m/s0 Lux
Tue 10, 07:04 PM11,1 ºC91,8 %943 hPa0,17 l/m2 0º N 4,2 m/s6,90 m/s0 Lux
Tue 10, 07:14 PM11,0 ºC92,8 %944 hPa0,17 l/m2 0º N 6,6 m/s9,10 m/s0 Lux
Tue 10, 07:24 PM11,3 ºC90,1 %943 hPa0,17 l/m2 0º N 6,6 m/s9,70 m/s0 Lux
Tue 10, 07:34 PM11,3 ºC91,8 %943 hPa0,00 l/m2 0º N 7,0 m/s10,50 m/s0 Lux
Tue 10, 07:44 PM11,1 ºC93,4 %943 hPa0,00 l/m2 0º N 3,1 m/s5,00 m/s0 Lux
Tue 10, 07:54 PM11,1 ºC93,5 %943 hPa0,17 l/m2 0º N 4,6 m/s6,50 m/s0 Lux
Tue 10, 08:04 PM11,0 ºC95,1 %943 hPa1,50 l/m2 0º N 6,8 m/s11,70 m/s0 Lux
Tue 10, 08:14 PM10,7 ºC97,1 %943 hPa0,92 l/m2 0º N 8,5 m/s11,40 m/s0 Lux
Tue 10, 08:24 PM10,7 ºC97,1 %943 hPa0,17 l/m2 0º N 6,8 m/s9,70 m/s0 Lux
Tue 10, 08:34 PM11,1 ºC95,2 %944 hPa0,08 l/m2 0º N 7,8 m/s10,50 m/s0 Lux
Tue 10, 08:44 PM10,4 ºC90,9 %944 hPa0,08 l/m2 0º N 9,5 m/s13,00 m/s0 Lux
Tue 10, 08:54 PM10,4 ºC89,1 %944 hPa0,00 l/m2 0º N 7,9 m/s10,00 m/s0 Lux
Tue 10, 09:04 PM10,1 ºC91,6 %944 hPa0,00 l/m2 0º N 8,9 m/s11,70 m/s0 Lux
Tue 10, 09:14 PM10,0 ºC92,5 %944 hPa0,00 l/m2 0º N 8,0 m/s9,70 m/s0 Lux
Tue 10, 09:24 PM9,9 ºC90,4 %944 hPa0,00 l/m2 0º N 9,3 m/s12,70 m/s0 Lux
Tue 10, 09:34 PM9,7 ºC87,5 %944 hPa0,08 l/m2 0º N 8,2 m/s9,70 m/s0 Lux
Tue 10, 09:44 PM9,4 ºC88,8 %944 hPa0,00 l/m2 0º N 7,2 m/s9,90 m/s0 Lux
Tue 10, 09:54 PM9,6 ºC87,4 %944 hPa0,00 l/m2 0º N 9,6 m/s11,60 m/s0 Lux
Tue 10, 10:04 PM9,5 ºC87,3 %945 hPa0,08 l/m2 0º N 10,0 m/s11,40 m/s0 Lux
Tue 10, 10:14 PM9,4 ºC86,4 %945 hPa0,00 l/m2 0º N 10,8 m/s13,10 m/s0 Lux
Tue 10, 10:24 PM9,2 ºC83,2 %945 hPa0,00 l/m2 0º N 11,1 m/s13,20 m/s0 Lux
Tue 10, 10:34 PM9,0 ºC82,9 %945 hPa0,00 l/m2 0º N 9,5 m/s11,10 m/s0 Lux
Tue 10, 10:44 PM8,8 ºC84,1 %945 hPa0,00 l/m2 0º N 7,4 m/s9,60 m/s0 Lux
Tue 10, 10:54 PM8,6 ºC84,4 %946 hPa0,00 l/m2 0º N 10,2 m/s12,60 m/s0 Lux
Tue 10, 11:04 PM8,5 ºC85,2 %946 hPa0,00 l/m2 0º N 7,9 m/s10,20 m/s0 Lux
Tue 10, 11:14 PM8,4 ºC86,8 %946 hPa0,00 l/m2 0º N 8,5 m/s11,80 m/s0 Lux
Tue 10, 11:24 PM8,5 ºC84,7 %946 hPa0,00 l/m2 0º N 8,9 m/s11,90 m/s0 Lux
Tue 10, 11:34 PM8,4 ºC84,2 %946 hPa0,00 l/m2 0º N 10,1 m/s12,90 m/s0 Lux
Tue 10, 11:44 PM8,3 ºC84,3 %946 hPa0,00 l/m2 0º N 9,5 m/s14,80 m/s0 Lux
Tue 10, 11:54 PM8,2 ºC83,7 %946 hPa0,00 l/m2 0º N 10,2 m/s12,70 m/s0 Lux
Wed 11, 12:04 AM8,2 ºC84,2 %946 hPa0,00 l/m2 0º N 10,3 m/s16,10 m/s0 Lux
Wed 11, 12:14 AM7,9 ºC85,4 %946 hPa0,00 l/m2 0º N 8,7 m/s10,30 m/s0 Lux
Wed 11, 12:24 AM7,6 ºC87,4 %946 hPa0,00 l/m2 0º N 7,7 m/s10,60 m/s0 Lux
Wed 11, 12:34 AM7,7 ºC87,2 %946 hPa0,00 l/m2 0º N 6,7 m/s8,20 m/s0 Lux
Wed 11, 12:44 AM7,8 ºC86,7 %946 hPa0,00 l/m2 0º N 7,1 m/s8,70 m/s0 Lux
Wed 11, 12:54 AM7,7 ºC86,1 %946 hPa0,08 l/m2 0º N 8,4 m/s12,20 m/s0 Lux
Wed 11, 01:04 AM7,5 ºC86,1 %946 hPa0,00 l/m2 0º N 6,8 m/s9,60 m/s0 Lux
Wed 11, 01:14 AM7,3 ºC85,8 %946 hPa0,00 l/m2 0º N 4,7 m/s8,70 m/s0 Lux
Wed 11, 01:24 AM7,0 ºC87,4 %946 hPa0,00 l/m2 0º N 4,2 m/s7,10 m/s0 Lux
Wed 11, 01:34 AM7,1 ºC85,7 %946 hPa0,00 l/m2 0º N 6,9 m/s10,20 m/s0 Lux
Wed 11, 01:44 AM7,2 ºC82,5 %946 hPa0,00 l/m2 0º N 5,9 m/s9,30 m/s0 Lux
Wed 11, 01:54 AM7,1 ºC83,1 %946 hPa0,00 l/m2 0º N 4,8 m/s7,10 m/s0 Lux
Wed 11, 02:04 AM7,1 ºC82,3 %946 hPa0,00 l/m2 0º N 5,4 m/s7,40 m/s0 Lux
Wed 11, 02:14 AM7,1 ºC82,0 %947 hPa0,00 l/m2 0º N 5,4 m/s8,20 m/s0 Lux
Wed 11, 02:24 AM7,1 ºC81,7 %947 hPa0,00 l/m2 0º N 6,9 m/s11,60 m/s0 Lux
Wed 11, 02:34 AM7,1 ºC81,9 %946 hPa0,00 l/m2 0º N 8,0 m/s14,30 m/s0 Lux
Wed 11, 02:44 AM7,2 ºC83,1 %946 hPa0,00 l/m2 0º N 6,7 m/s8,50 m/s0 Lux
Wed 11, 02:54 AM7,0 ºC84,4 %946 hPa0,08 l/m2 0º N 6,6 m/s10,60 m/s0 Lux
Wed 11, 03:04 AM7,1 ºC85,2 %946 hPa0,00 l/m2 0º N 6,2 m/s8,50 m/s0 Lux
Wed 11, 03:14 AM7,0 ºC86,3 %946 hPa0,00 l/m2 0º N 6,2 m/s8,00 m/s0 Lux
Wed 11, 03:24 AM6,8 ºC88,0 %946 hPa0,00 l/m2 0º N 6,6 m/s8,80 m/s0 Lux
Wed 11, 03:34 AM6,7 ºC89,5 %946 hPa0,00 l/m2 0º N 5,0 m/s7,80 m/s0 Lux
Wed 11, 03:44 AM6,5 ºC92,2 %946 hPa0,00 l/m2 0º N 3,3 m/s5,70 m/s0 Lux
Wed 11, 03:54 AM6,5 ºC94,0 %946 hPa0,00 l/m2 0º N 3,6 m/s8,00 m/s0 Lux
Wed 11, 04:04 AM6,6 ºC91,9 %946 hPa0,00 l/m2 0º N 4,8 m/s8,00 m/s0 Lux
Wed 11, 04:14 AM6,6 ºC91,2 %946 hPa0,00 l/m2 0º N 4,9 m/s8,80 m/s0 Lux
Wed 11, 04:24 AM6,7 ºC90,5 %946 hPa0,00 l/m2 0º N 5,0 m/s8,80 m/s0 Lux
Wed 11, 04:34 AM6,7 ºC89,6 %946 hPa0,00 l/m2 0º N 4,1 m/s6,10 m/s0 Lux
Wed 11, 04:44 AM6,8 ºC89,2 %946 hPa0,00 l/m2 0º N 8,2 m/s12,50 m/s0 Lux
Wed 11, 04:54 AM6,7 ºC89,8 %946 hPa0,00 l/m2 0º N 4,8 m/s6,90 m/s0 Lux
Wed 11, 05:04 AM6,7 ºC88,9 %946 hPa0,00 l/m2 0º N 7,3 m/s11,20 m/s0 Lux
Wed 11, 05:14 AM6,6 ºC88,9 %946 hPa0,00 l/m2 0º N 5,7 m/s7,90 m/s0 Lux
Wed 11, 05:24 AM6,5 ºC87,6 %946 hPa0,00 l/m2 0º N 9,7 m/s17,60 m/s0 Lux
Wed 11, 05:34 AM6,6 ºC87,1 %946 hPa0,00 l/m2 0º N 10,4 m/s14,80 m/s0 Lux
Wed 11, 05:44 AM6,6 ºC88,2 %946 hPa0,00 l/m2 0º N 6,4 m/s10,90 m/s0 Lux
Wed 11, 05:54 AM6,6 ºC87,7 %946 hPa0,00 l/m2 0º N 7,9 m/s14,10 m/s0 Lux
Wed 11, 06:04 AM6,3 ºC90,4 %946 hPa0,33 l/m2 0º N 17,7 m/s22,70 m/s0 Lux
Wed 11, 06:14 AM5,9 ºC94,8 %946 hPa0,33 l/m2 0º N 14,6 m/s18,80 m/s0 Lux
Wed 11, 06:24 AM6,0 ºC95,4 %946 hPa0,00 l/m2 0º N 10,7 m/s14,90 m/s0 Lux
Wed 11, 06:34 AM6,1 ºC95,6 %946 hPa0,42 l/m2 0º N 8,9 m/s11,00 m/s0 Lux
Wed 11, 06:44 AM6,1 ºC95,5 %946 hPa0,17 l/m2 0º N 8,7 m/s12,80 m/s0 Lux
Wed 11, 06:54 AM6,2 ºC92,8 %946 hPa0,00 l/m2 0º N 9,1 m/s12,80 m/s0 Lux
Wed 11, 07:04 AM6,1 ºC92,4 %946 hPa0,00 l/m2 0º N 6,8 m/s8,90 m/s0 Lux
Wed 11, 07:14 AM6,1 ºC93,4 %946 hPa0,33 l/m2 0º N 7,7 m/s10,20 m/s0 Lux
Wed 11, 07:24 AM5,9 ºC95,6 %946 hPa0,00 l/m2 0º N 6,3 m/s9,40 m/s0 Lux
Wed 11, 07:34 AM5,9 ºC96,2 %946 hPa0,08 l/m2 0º N 7,4 m/s10,40 m/s0 Lux
Wed 11, 07:44 AM6,1 ºC92,8 %946 hPa0,00 l/m2 0º N 8,4 m/s10,40 m/s0 Lux
Wed 11, 07:54 AM6,2 ºC91,2 %946 hPa0,08 l/m2 0º N 9,1 m/s11,60 m/s0 Lux
Wed 11, 08:04 AM6,3 ºC90,1 %947 hPa0,00 l/m2 0º N 9,3 m/s11,20 m/s0 Lux
Wed 11, 08:14 AM6,2 ºC90,3 %947 hPa0,00 l/m2 0º N 10,4 m/s13,50 m/s0 Lux
Wed 11, 08:24 AM6,2 ºC90,2 %947 hPa0,00 l/m2 0º N 10,8 m/s12,20 m/s0 Lux
Wed 11, 08:34 AM6,1 ºC92,0 %947 hPa0,00 l/m2 0º N 10,4 m/s14,70 m/s0 Lux
Wed 11, 08:44 AM6,2 ºC91,8 %947 hPa0,00 l/m2 0º N 10,4 m/s13,40 m/s0 Lux
Wed 11, 08:54 AM6,2 ºC91,2 %947 hPa0,00 l/m2 0º N 10,7 m/s13,50 m/s0 Lux
Wed 11, 09:04 AM6,2 ºC91,8 %948 hPa0,00 l/m2 0º N 10,0 m/s12,30 m/s0 Lux
Wed 11, 09:14 AM6,3 ºC90,7 %948 hPa0,00 l/m2 0º N 9,7 m/s14,30 m/s0 Lux
Wed 11, 09:24 AM6,4 ºC90,6 %948 hPa0,00 l/m2 0º N 10,2 m/s13,70 m/s0 Lux
Wed 11, 09:34 AM6,4 ºC90,7 %948 hPa0,00 l/m2 0º N 10,6 m/s13,30 m/s0 Lux
Wed 11, 09:44 AM6,5 ºC89,1 %948 hPa0,00 l/m2 0º N 9,4 m/s12,90 m/s0 Lux
Wed 11, 09:54 AM6,4 ºC89,7 %948 hPa0,00 l/m2 0º N 10,7 m/s13,00 m/s0 Lux
Wed 11, 10:04 AM6,5 ºC86,3 %948 hPa0,00 l/m2 0º N 10,8 m/s13,40 m/s0 Lux
Wed 11, 10:14 AM6,8 ºC85,5 %949 hPa0,00 l/m2 0º N 10,0 m/s14,10 m/s0 Lux
Wed 11, 10:24 AM7,0 ºC84,7 %949 hPa0,00 l/m2 0º N 10,8 m/s15,50 m/s0 Lux
Wed 11, 10:34 AM7,0 ºC83,1 %949 hPa0,00 l/m2 0º N 10,8 m/s14,10 m/s0 Lux
Wed 11, 10:44 AM7,2 ºC82,5 %949 hPa0,00 l/m2 0º N 10,2 m/s12,90 m/s0 Lux
Wed 11, 10:54 AM7,6 ºC82,0 %949 hPa0,00 l/m2 0º N 11,0 m/s13,10 m/s0 Lux
Wed 11, 11:04 AM7,8 ºC78,3 %949 hPa0,00 l/m2 0º N 10,5 m/s15,70 m/s0 Lux
Wed 11, 11:14 AM8,2 ºC76,6 %949 hPa0,00 l/m2 0º N 9,1 m/s16,20 m/s0 Lux
Wed 11, 11:24 AM7,4 ºC82,2 %949 hPa0,04 l/m2 0º N 9,1 m/s11,00 m/s0 Lux
Wed 11, 11:34 AM7,5 ºC78,0 %949 hPa0,00 l/m2 0º N 32,9 m/s59,30 m/s0 Lux
Wed 11, 11:44 AM8,2 ºC76,9 %949 hPa0,00 l/m2 0º N 55,0 m/s100,20 m/s0 Lux
Wed 11, 11:54 AM9,2 ºC73,2 %950 hPa0,00 l/m2 0º N 36,7 m/s59,50 m/s0 Lux
Wed 11, 12:04 PM9,3 ºC67,0 %950 hPa0,00 l/m2 0º N 31,7 m/s107,30 m/s0 Lux
Wed 11, 12:14 PM10,8 ºC64,9 %950 hPa0,00 l/m2 0º N 11,8 m/s16,60 m/s0 Lux
Wed 11, 12:24 PM9,6 ºC67,7 %950 hPa0,00 l/m2 0º N 12,5 m/s17,30 m/s0 Lux
Wed 11, 12:34 PM9,3 ºC68,7 %950 hPa0,00 l/m2 0º N 12,2 m/s17,80 m/s0 Lux
Wed 11, 12:44 PM9,3 ºC69,5 %950 hPa0,00 l/m2 0º N 12,2 m/s15,90 m/s0 Lux
Wed 11, 12:54 PM9,5 ºC68,7 %950 hPa0,00 l/m2 0º N 11,9 m/s14,20 m/s0 Lux
Wed 11, 01:04 PM9,8 ºC67,9 %950 hPa0,00 l/m2 0º N 12,4 m/s16,50 m/s0 Lux
Wed 11, 01:14 PM10,8 ºC63,9 %950 hPa0,00 l/m2 0º N 14,2 m/s18,40 m/s0 Lux
Wed 11, 01:24 PM10,5 ºC61,1 %950 hPa0,00 l/m2 0º N 13,8 m/s20,50 m/s0 Lux
Wed 11, 01:56 PM11,2 ºC59,5 %950 hPa0,00 l/m2 0º N 15,7 m/s22,40 m/s0 Lux
Wed 11, 02:06 PM11,8 ºC57,9 %950 hPa0,00 l/m2 0º N 13,7 m/s17,30 m/s0 Lux
Wed 11, 02:16 PM12,2 ºC55,8 %950 hPa0,00 l/m2 0º N 10,8 m/s14,20 m/s0 Lux
Wed 11, 02:26 PM12,6 ºC56,9 %950 hPa0,00 l/m2 0º N 9,6 m/s12,00 m/s0 Lux
Wed 11, 02:36 PM13,6 ºC51,3 %950 hPa0,00 l/m2 0º N 7,8 m/s9,60 m/s0 Lux
Wed 11, 02:46 PM13,9 ºC51,4 %950 hPa0,00 l/m2 0º N 9,0 m/s11,10 m/s0 Lux
Wed 11, 02:56 PM13,6 ºC52,8 %950 hPa0,00 l/m2 0º N 9,3 m/s12,90 m/s0 Lux
Wed 11, 03:06 PM13,0 ºC53,0 %950 hPa0,00 l/m2 0º N 8,7 m/s10,20 m/s0 Lux
Wed 11, 03:16 PM11,6 ºC54,8 %950 hPa0,00 l/m2 0º N 8,7 m/s10,00 m/s0 Lux
Wed 11, 03:26 PM14,4 ºC51,7 %950 hPa0,00 l/m2 0º N 8,4 m/s9,60 m/s0 Lux
Wed 11, 03:36 PM13,4 ºC50,0 %950 hPa0,00 l/m2 0º N 9,1 m/s10,60 m/s0 Lux
Wed 11, 03:46 PM13,0 ºC51,3 %950 hPa0,00 l/m2 0º N 9,6 m/s11,90 m/s0 Lux
Wed 11, 03:56 PM12,6 ºC49,5 %950 hPa0,00 l/m2 0º N 9,0 m/s12,70 m/s0 Lux
Wed 11, 04:06 PM12,7 ºC54,4 %950 hPa0,00 l/m2 0º N 9,7 m/s12,00 m/s0 Lux
Wed 11, 04:16 PM14,9 ºC44,9 %950 hPa0,00 l/m2 0º N 10,5 m/s12,90 m/s0 Lux
Wed 11, 04:26 PM14,3 ºC47,2 %950 hPa0,00 l/m2 0º N 9,3 m/s12,80 m/s0 Lux
Wed 11, 04:36 PM12,0 ºC53,6 %950 hPa0,00 l/m2 0º N 8,9 m/s11,10 m/s0 Lux
Wed 11, 04:46 PM13,2 ºC50,1 %950 hPa0,00 l/m2 0º N 8,7 m/s11,80 m/s0 Lux
Wed 11, 04:56 PM14,6 ºC44,8 %949 hPa0,00 l/m2 0º N 12,5 m/s16,70 m/s0 Lux
Wed 11, 05:06 PM12,3 ºC53,7 %950 hPa0,00 l/m2 0º N 9,3 m/s12,80 m/s0 Lux
Wed 11, 05:16 PM14,3 ºC48,0 %949 hPa0,00 l/m2 0º N 9,5 m/s11,20 m/s0 Lux
Wed 11, 05:26 PM14,6 ºC45,3 %949 hPa0,00 l/m2 0º N 10,7 m/s14,00 m/s0 Lux
Wed 11, 05:36 PM15,4 ºC43,0 %949 hPa0,00 l/m2 0º N 11,3 m/s15,20 m/s0 Lux
Wed 11, 05:46 PM12,9 ºC50,0 %950 hPa0,00 l/m2 0º N 8,7 m/s10,90 m/s0 Lux
Wed 11, 05:56 PM14,9 ºC45,0 %950 hPa0,00 l/m2 0º N 17,6 m/s25,10 m/s0 Lux
Wed 11, 06:06 PM14,4 ºC42,6 %950 hPa0,00 l/m2 0º N 13,5 m/s16,00 m/s0 Lux
Wed 11, 06:16 PM14,0 ºC47,2 %950 hPa0,00 l/m2 0º N 11,2 m/s15,30 m/s0 Lux
Wed 11, 06:26 PM14,8 ºC46,6 %950 hPa0,00 l/m2 0º N 11,1 m/s16,90 m/s0 Lux
Wed 11, 06:36 PM13,9 ºC49,2 %950 hPa0,00 l/m2 0º N 14,0 m/s20,90 m/s0 Lux
Wed 11, 06:46 PM13,7 ºC49,6 %950 hPa0,00 l/m2 0º N 13,1 m/s20,60 m/s0 Lux
Wed 11, 06:56 PM14,3 ºC45,7 %950 hPa0,00 l/m2 0º N 14,6 m/s18,10 m/s0 Lux
Wed 11, 07:06 PM13,1 ºC51,6 %950 hPa0,00 l/m2 0º N 14,0 m/s17,00 m/s0 Lux
Wed 11, 07:16 PM13,0 ºC53,6 %950 hPa0,00 l/m2 0º N 20,3 m/s33,70 m/s0 Lux
Wed 11, 07:26 PM13,4 ºC51,7 %950 hPa0,00 l/m2 0º N 18,2 m/s23,60 m/s0 Lux
Wed 11, 07:36 PM13,5 ºC53,5 %950 hPa0,00 l/m2 0º N 11,9 m/s14,00 m/s0 Lux
Wed 11, 07:46 PM12,0 ºC57,7 %950 hPa0,00 l/m2 0º N 10,0 m/s13,60 m/s0 Lux
Wed 11, 07:56 PM12,6 ºC57,1 %951 hPa0,00 l/m2 0º N 11,9 m/s14,80 m/s0 Lux
Wed 11, 08:06 PM11,9 ºC60,7 %951 hPa0,00 l/m2 0º N 11,1 m/s14,20 m/s0 Lux
Wed 11, 08:16 PM12,2 ºC60,3 %951 hPa0,00 l/m2 0º N 8,4 m/s9,70 m/s0 Lux
Wed 11, 08:26 PM11,9 ºC61,3 %951 hPa0,00 l/m2 0º N 10,0 m/s12,70 m/s0 Lux
Wed 11, 08:36 PM11,5 ºC63,1 %951 hPa0,00 l/m2 0º N 9,8 m/s11,40 m/s0 Lux
Wed 11, 08:46 PM11,1 ºC64,2 %951 hPa0,00 l/m2 0º N 9,6 m/s11,80 m/s0 Lux
Wed 11, 08:56 PM11,0 ºC64,5 %951 hPa0,00 l/m2 0º N 8,6 m/s10,90 m/s0 Lux
Wed 11, 09:06 PM10,8 ºC65,4 %951 hPa0,00 l/m2 0º N 9,3 m/s11,00 m/s0 Lux
Wed 11, 09:16 PM10,6 ºC65,9 %951 hPa0,00 l/m2 0º N 9,3 m/s12,20 m/s0 Lux
Wed 11, 09:26 PM10,6 ºC65,1 %951 hPa0,00 l/m2 0º N 7,5 m/s14,50 m/s0 Lux
Wed 11, 09:36 PM10,3 ºC68,6 %952 hPa0,00 l/m2 0º N 5,9 m/s7,60 m/s0 Lux
Wed 11, 09:46 PM10,3 ºC71,3 %952 hPa0,00 l/m2 0º N 6,1 m/s8,40 m/s0 Lux
Wed 11, 09:56 PM10,2 ºC72,6 %952 hPa0,00 l/m2 0º N 4,7 m/s7,10 m/s0 Lux
Wed 11, 10:06 PM10,1 ºC73,4 %952 hPa0,00 l/m2 0º N 5,3 m/s7,70 m/s0 Lux
Wed 11, 10:16 PM10,1 ºC72,8 %952 hPa0,00 l/m2 0º N 6,3 m/s8,80 m/s0 Lux
Wed 11, 10:26 PM10,1 ºC72,7 %952 hPa0,00 l/m2 0º N 5,0 m/s6,90 m/s0 Lux
Wed 11, 10:36 PM10,1 ºC72,0 %952 hPa0,00 l/m2 0º N 4,9 m/s7,20 m/s0 Lux
Wed 11, 10:46 PM10,0 ºC73,0 %952 hPa0,00 l/m2 0º N 5,0 m/s6,70 m/s0 Lux
Wed 11, 10:56 PM10,0 ºC73,3 %952 hPa0,00 l/m2 0º N 5,3 m/s7,40 m/s0 Lux
Wed 11, 11:06 PM10,0 ºC73,3 %953 hPa0,00 l/m2 0º N 4,7 m/s6,90 m/s0 Lux
Wed 11, 11:16 PM9,9 ºC74,5 %953 hPa0,00 l/m2 0º N 5,2 m/s6,90 m/s0 Lux
Wed 11, 11:26 PM9,7 ºC76,2 %953 hPa0,00 l/m2 0º N 4,4 m/s6,80 m/s0 Lux
Wed 11, 11:36 PM9,5 ºC77,7 %953 hPa0,00 l/m2 0º N 3,1 m/s6,30 m/s0 Lux
Wed 11, 11:46 PM9,5 ºC78,8 %953 hPa0,00 l/m2 0º N 4,6 m/s6,40 m/s0 Lux
Wed 11, 11:56 PM9,5 ºC79,4 %953 hPa0,00 l/m2 0º N 3,9 m/s6,50 m/s0 Lux
Thu 12, 12:06 AM9,4 ºC80,5 %953 hPa0,00 l/m2 0º N 4,8 m/s7,60 m/s0 Lux
Thu 12, 12:16 AM9,6 ºC80,7 %953 hPa0,00 l/m2 0º N 5,9 m/s12,70 m/s0 Lux
Thu 12, 12:26 AM9,7 ºC80,6 %953 hPa0,00 l/m2 0º N 5,2 m/s7,70 m/s0 Lux
Thu 12, 12:36 AM9,7 ºC81,2 %953 hPa0,00 l/m2 0º N 4,0 m/s5,90 m/s0 Lux
Thu 12, 12:46 AM9,5 ºC82,4 %953 hPa0,00 l/m2 0º N 4,8 m/s8,90 m/s0 Lux
Thu 12, 12:56 AM9,6 ºC81,6 %953 hPa0,00 l/m2 0º N 5,6 m/s9,00 m/s0 Lux
Thu 12, 01:06 AM9,5 ºC81,9 %953 hPa0,00 l/m2 0º N 6,6 m/s10,70 m/s0 Lux
Thu 12, 01:16 AM9,4 ºC82,0 %953 hPa0,00 l/m2 0º N 2,7 m/s5,00 m/s0 Lux
Thu 12, 01:26 AM9,4 ºC82,0 %953 hPa0,00 l/m2 0º N 2,9 m/s5,00 m/s0 Lux
Thu 12, 01:36 AM9,1 ºC82,7 %953 hPa0,00 l/m2 0º N 2,8 m/s5,20 m/s0 Lux
Thu 12, 01:46 AM9,0 ºC83,3 %953 hPa0,00 l/m2 0º N 2,8 m/s5,00 m/s0 Lux
Thu 12, 01:56 AM9,0 ºC83,1 %953 hPa0,00 l/m2 0º N 6,1 m/s8,40 m/s0 Lux
Thu 12, 02:06 AM9,2 ºC81,7 %953 hPa0,00 l/m2 0º N 5,5 m/s9,70 m/s0 Lux
Thu 12, 02:16 AM9,1 ºC82,1 %953 hPa0,00 l/m2 0º N 3,6 m/s6,50 m/s0 Lux
Thu 12, 02:26 AM9,0 ºC82,3 %953 hPa0,00 l/m2 0º N 4,8 m/s7,80 m/s0 Lux
Thu 12, 02:36 AM8,9 ºC82,7 %953 hPa0,00 l/m2 0º N 6,0 m/s8,00 m/s0 Lux
Thu 12, 02:46 AM8,9 ºC82,6 %953 hPa0,00 l/m2 0º N 4,6 m/s6,60 m/s0 Lux
Thu 12, 02:56 AM8,8 ºC83,3 %953 hPa0,00 l/m2 0º N 3,9 m/s7,30 m/s0 Lux
Thu 12, 03:06 AM8,6 ºC83,9 %952 hPa0,00 l/m2 0º N 5,2 m/s6,80 m/s0 Lux
Thu 12, 03:16 AM8,6 ºC83,9 %953 hPa0,00 l/m2 0º N 3,7 m/s6,50 m/s0 Lux
Thu 12, 03:26 AM8,5 ºC83,9 %952 hPa0,00 l/m2 0º N 6,8 m/s9,80 m/s0 Lux
Thu 12, 03:36 AM8,4 ºC83,8 %952 hPa0,00 l/m2 0º N 5,9 m/s9,50 m/s0 Lux
Thu 12, 03:46 AM8,4 ºC84,4 %953 hPa0,00 l/m2 0º N 6,5 m/s8,50 m/s0 Lux
Thu 12, 03:56 AM8,3 ºC84,8 %953 hPa0,00 l/m2 0º N 5,0 m/s8,70 m/s0 Lux
Thu 12, 04:06 AM8,3 ºC85,1 %953 hPa0,00 l/m2 0º N 4,7 m/s7,60 m/s0 Lux
Thu 12, 04:16 AM8,2 ºC85,4 %953 hPa0,00 l/m2 0º N 3,6 m/s6,10 m/s0 Lux
Thu 12, 04:26 AM8,2 ºC85,7 %952 hPa0,00 l/m2 0º N 4,7 m/s6,90 m/s0 Lux
Thu 12, 04:36 AM8,1 ºC85,8 %952 hPa0,00 l/m2 0º N 1,6 m/s5,50 m/s0 Lux
Thu 12, 04:46 AM8,1 ºC86,3 %952 hPa0,00 l/m2 0º N 3,9 m/s5,50 m/s0 Lux
Thu 12, 04:56 AM8,1 ºC86,8 %952 hPa0,00 l/m2 0º N 4,6 m/s6,70 m/s0 Lux
Thu 12, 05:06 AM8,1 ºC87,1 %952 hPa0,00 l/m2 0º N 2,9 m/s6,10 m/s0 Lux
Thu 12, 05:16 AM8,0 ºC87,7 %952 hPa0,00 l/m2 0º N 1,1 m/s2,80 m/s0 Lux
Thu 12, 05:26 AM8,0 ºC88,4 %952 hPa0,00 l/m2 0º N 0,6 m/s3,80 m/s0 Lux
Thu 12, 05:36 AM7,6 ºC90,1 %952 hPa0,00 l/m2 0º N 0,7 m/s3,10 m/s0 Lux
Thu 12, 05:46 AM7,7 ºC90,4 %952 hPa0,00 l/m2 0º N 2,9 m/s5,60 m/s0 Lux
Thu 12, 05:56 AM7,9 ºC89,7 %952 hPa0,00 l/m2 0º N 0,9 m/s2,80 m/s0 Lux
Thu 12, 06:06 AM7,7 ºC90,7 %952 hPa0,00 l/m2 0º N 0,7 m/s3,10 m/s0 Lux
Thu 12, 06:16 AM7,6 ºC91,3 %952 hPa0,00 l/m2 0º N 1,7 m/s3,80 m/s0 Lux
Thu 12, 06:26 AM7,3 ºC92,8 %952 hPa0,00 l/m2 0º N 2,2 m/s4,80 m/s0 Lux
Thu 12, 06:36 AM7,2 ºC93,8 %952 hPa0,00 l/m2 0º N 2,1 m/s5,80 m/s0 Lux
Thu 12, 06:46 AM7,3 ºC93,3 %952 hPa0,00 l/m2 0º N 3,7 m/s6,10 m/s0 Lux
Thu 12, 06:56 AM7,6 ºC92,4 %952 hPa0,00 l/m2 0º N 1,5 m/s5,30 m/s0 Lux
Thu 12, 07:06 AM7,6 ºC92,1 %952 hPa0,00 l/m2 0º N 0,1 m/s0,60 m/s0 Lux
Thu 12, 07:16 AM7,5 ºC92,5 %952 hPa0,00 l/m2 0º N 0,0 m/s0,00 m/s0 Lux
Thu 12, 07:26 AM7,5 ºC92,8 %952 hPa0,00 l/m2 0º N 0,0 m/s0,00 m/s0 Lux
Thu 12, 07:36 AM7,6 ºC92,3 %952 hPa0,00 l/m2 0º N 0,5 m/s3,00 m/s0 Lux
Thu 12, 07:46 AM7,6 ºC92,2 %952 hPa0,00 l/m2 0º N 0,7 m/s2,00 m/s0 Lux
Thu 12, 07:56 AM7,7 ºC91,7 %952 hPa0,00 l/m2 0º N 0,5 m/s1,60 m/s0 Lux
Thu 12, 08:06 AM7,8 ºC91,1 %952 hPa0,00 l/m2 0º N 0,0 m/s0,00 m/s0 Lux
Thu 12, 08:16 AM7,8 ºC91,3 %952 hPa0,00 l/m2 0º N 0,1 m/s1,10 m/s0 Lux
Thu 12, 08:26 AM7,7 ºC91,5 %952 hPa0,00 l/m2 0º N 0,6 m/s3,30 m/s0 Lux
Thu 12, 08:36 AM7,7 ºC90,9 %952 hPa0,00 l/m2 0º N 0,2 m/s1,90 m/s0 Lux
Thu 12, 08:46 AM7,8 ºC91,6 %952 hPa0,00 l/m2 0º N 0,1 m/s0,50 m/s0 Lux
Thu 12, 08:56 AM7,8 ºC91,1 %952 hPa0,00 l/m2 0º N 0,0 m/s0,00 m/s0 Lux
Thu 12, 09:06 AM7,8 ºC92,2 %952 hPa0,00 l/m2 0º N 0,0 m/s0,00 m/s0 Lux
Thu 12, 09:16 AM8,2 ºC91,7 %952 hPa0,00 l/m2 0º N 0,0 m/s0,00 m/s0 Lux
Thu 12, 09:26 AM8,8 ºC89,0 %952 hPa0,00 l/m2 0º N 0,0 m/s0,00 m/s0 Lux
Thu 12, 09:36 AM9,8 ºC83,1 %952 hPa0,00 l/m2 0º N 0,0 m/s0,00 m/s0 Lux
Thu 12, 09:46 AM10,8 ºC79,8 %952 hPa0,00 l/m2 0º N 0,0 m/s0,00 m/s0 Lux
Thu 12, 09:56 AM11,4 ºC77,0 %952 hPa0,00 l/m2 0º N 1,4 m/s3,20 m/s0 Lux
Thu 12, 10:06 AM10,7 ºC78,2 %952 hPa0,00 l/m2 0º N 0,9 m/s2,60 m/s0 Lux
Thu 12, 10:16 AM12,3 ºC71,0 %952 hPa0,00 l/m2 0º N 0,2 m/s1,80 m/s0 Lux
Thu 12, 10:26 AM11,5 ºC74,8 %952 hPa0,00 l/m2 0º N 0,0 m/s0,00 m/s0 Lux
Thu 12, 10:36 AM12,6 ºC71,3 %952 hPa0,00 l/m2 0º N 0,0 m/s0,10 m/s0 Lux
Thu 12, 10:46 AM14,0 ºC65,1 %952 hPa0,00 l/m2 0º N 0,1 m/s0,40 m/s0 Lux
Thu 12, 10:56 AM12,5 ºC70,8 %952 hPa0,00 l/m2 0º N 0,0 m/s0,20 m/s0 Lux
Thu 12, 11:06 AM12,4 ºC71,1 %952 hPa0,00 l/m2 0º N 0,0 m/s0,20 m/s0 Lux
Thu 12, 11:16 AM15,1 ºC61,5 %952 hPa0,00 l/m2 0º N 0,0 m/s0,00 m/s0 Lux
Thu 12, 11:26 AM15,4 ºC59,6 %952 hPa0,00 l/m2 0º N 0,1 m/s0,90 m/s0 Lux
Thu 12, 11:36 AM13,8 ºC64,8 %952 hPa0,00 l/m2 0º N 0,0 m/s0,00 m/s0 Lux
Thu 12, 11:46 AM13,0 ºC65,9 %952 hPa0,00 l/m2 0º N 0,0 m/s0,00 m/s0 Lux
Thu 12, 11:56 AM11,6 ºC69,8 %952 hPa0,00 l/m2 0º N 0,0 m/s0,00 m/s0 Lux
Thu 12, 12:06 PM11,7 ºC70,5 %952 hPa0,00 l/m2 0º N 0,0 m/s0,00 m/s0 Lux
Thu 12, 12:16 PM11,9 ºC68,8 %951 hPa0,00 l/m2 0º N 2,1 m/s5,50 m/s0 Lux
Thu 12, 12:26 PM12,2 ºC69,2 %952 hPa0,00 l/m2 0º N 3,3 m/s4,80 m/s0 Lux
Thu 12, 12:36 PM11,8 ºC69,8 %952 hPa0,00 l/m2 0º N 6,2 m/s7,60 m/s0 Lux
Thu 12, 12:46 PM12,1 ºC69,6 %951 hPa0,00 l/m2 0º N 1,8 m/s5,50 m/s0 Lux
Thu 12, 12:56 PM13,8 ºC63,2 %951 hPa0,00 l/m2 0º N 1,4 m/s4,40 m/s0 Lux
Thu 12, 01:06 PM14,5 ºC60,3 %951 hPa0,00 l/m2 0º N 1,8 m/s3,70 m/s0 Lux
Thu 12, 01:45 PM15,9 ºC58,2 %950 hPa0,00 l/m2 0º N 1,5 m/s3,10 m/s0 Lux
Thu 12, 01:55 PM15,9 ºC54,9 %950 hPa0,00 l/m2 0º N 4,5 m/s7,20 m/s0 Lux
Thu 12, 02:08 PM14,4 ºC60,9 %950 hPa0,00 l/m2 0º N 3,3 m/s4,80 m/s0 Lux
Thu 12, 02:18 PM12,9 ºC64,8 %950 hPa0,00 l/m2 0º N 2,8 m/s3,80 m/s0 Lux
Thu 12, 02:28 PM12,8 ºC65,5 %950 hPa0,00 l/m2 0º N 1,2 m/s2,30 m/s0 Lux
Thu 12, 02:38 PM13,1 ºC65,4 %950 hPa0,00 l/m2 0º N 1,5 m/s2,60 m/s0 Lux
Thu 12, 02:48 PM12,6 ºC66,9 %949 hPa0,00 l/m2 0º N 0,6 m/s2,50 m/s0 Lux
Thu 12, 02:58 PM13,0 ºC65,0 %949 hPa0,00 l/m2 0º N 1,9 m/s4,60 m/s0 Lux
Thu 12, 03:08 PM12,9 ºC65,1 %949 hPa0,00 l/m2 0º N 1,8 m/s2,90 m/s0 Lux
Thu 12, 03:18 PM12,4 ºC71,9 %949 hPa0,00 l/m2 0º N 1,2 m/s2,10 m/s0 Lux
Thu 12, 03:28 PM12,2 ºC72,1 %949 hPa0,00 l/m2 0º N 2,1 m/s3,10 m/s0 Lux
Thu 12, 03:38 PM11,7 ºC75,8 %949 hPa0,00 l/m2 0º N 2,4 m/s3,80 m/s0 Lux
Thu 12, 03:48 PM11,5 ºC77,5 %949 hPa0,00 l/m2 0º N 1,9 m/s3,30 m/s0 Lux
Thu 12, 03:58 PM12,3 ºC76,1 %949 hPa0,00 l/m2 0º N 2,5 m/s3,90 m/s0 Lux
Thu 12, 04:08 PM12,5 ºC75,3 %948 hPa0,00 l/m2 0º N 2,5 m/s3,90 m/s0 Lux
Thu 12, 04:18 PM12,8 ºC73,1 %948 hPa0,00 l/m2 0º N 2,8 m/s3,70 m/s0 Lux
Thu 12, 04:28 PM13,3 ºC71,2 %948 hPa0,00 l/m2 0º N 3,3 m/s4,80 m/s0 Lux
Thu 12, 04:38 PM13,2 ºC72,5 %947 hPa0,00 l/m2 0º N 3,6 m/s4,70 m/s0 Lux
Thu 12, 04:48 PM12,9 ºC74,1 %947 hPa0,00 l/m2 0º N 4,0 m/s6,40 m/s0 Lux
Thu 12, 04:58 PM12,4 ºC76,6 %947 hPa0,00 l/m2 0º N 3,6 m/s6,20 m/s0 Lux
Thu 12, 05:08 PM11,8 ºC84,6 %947 hPa0,00 l/m2 0º N 2,3 m/s4,10 m/s0 Lux
Thu 12, 05:18 PM11,9 ºC81,5 %946 hPa0,00 l/m2 0º N 4,1 m/s6,00 m/s0 Lux
Thu 12, 05:28 PM12,0 ºC80,4 %946 hPa0,00 l/m2 0º N 4,1 m/s5,00 m/s0 Lux
Thu 12, 05:38 PM11,9 ºC77,0 %946 hPa0,00 l/m2 0º N 5,0 m/s8,00 m/s0 Lux
Thu 12, 05:48 PM11,8 ºC79,1 %946 hPa0,00 l/m2 0º N 4,2 m/s6,40 m/s0 Lux
Thu 12, 05:58 PM11,4 ºC84,4 %946 hPa0,00 l/m2 0º N 4,0 m/s6,80 m/s0 Lux
Thu 12, 06:08 PM11,2 ºC86,5 %947 hPa0,00 l/m2 0º N 6,8 m/s12,20 m/s0 Lux
Thu 12, 06:18 PM6,6 ºC95,7 %949 hPa0,00 l/m2 0º N 3,4 m/s6,40 m/s0 Lux
Thu 12, 06:28 PM7,0 ºC97,6 %948 hPa0,00 l/m2 0º N 2,1 m/s3,20 m/s0 Lux
Thu 12, 06:38 PM7,3 ºC97,9 %949 hPa0,00 l/m2 0º N 2,0 m/s4,00 m/s0 Lux
Thu 12, 06:48 PM7,4 ºC98,0 %948 hPa0,00 l/m2 0º N 2,1 m/s4,10 m/s0 Lux
Thu 12, 06:58 PM7,6 ºC98,1 %948 hPa0,00 l/m2 0º N 2,1 m/s3,60 m/s0 Lux
Thu 12, 07:08 PM7,7 ºC95,6 %948 hPa0,00 l/m2 0º N 2,6 m/s4,10 m/s0 Lux
Thu 12, 07:18 PM7,8 ºC91,7 %947 hPa0,00 l/m2 0º N 3,4 m/s4,90 m/s0 Lux
Thu 12, 07:28 PM8,0 ºC88,0 %947 hPa0,00 l/m2 0º N 2,8 m/s4,10 m/s0 Lux
Thu 12, 07:38 PM8,1 ºC86,2 %947 hPa0,00 l/m2 0º N 2,4 m/s3,20 m/s0 Lux
Thu 12, 07:48 PM8,3 ºC83,7 %947 hPa0,00 l/m2 0º N 2,0 m/s2,30 m/s0 Lux
Thu 12, 07:58 PM8,6 ºC81,7 %946 hPa0,00 l/m2 0º N 2,3 m/s2,80 m/s0 Lux
Thu 12, 08:08 PM8,9 ºC78,8 %947 hPa0,00 l/m2 0º N 2,8 m/s3,10 m/s0 Lux
Thu 12, 08:18 PM9,2 ºC77,2 %948 hPa0,00 l/m2 0º N 2,7 m/s3,90 m/s0 Lux
Thu 12, 08:28 PM9,5 ºC78,0 %947 hPa0,00 l/m2 0º N 2,0 m/s2,70 m/s0 Lux
Thu 12, 08:38 PM9,4 ºC77,4 %947 hPa0,00 l/m2 0º N 2,4 m/s3,50 m/s0 Lux
Thu 12, 08:48 PM9,2 ºC78,8 %947 hPa0,00 l/m2 0º N 2,5 m/s3,60 m/s0 Lux
Thu 12, 08:58 PM9,0 ºC80,3 %947 hPa0,00 l/m2 0º N 2,5 m/s3,20 m/s0 Lux
Thu 12, 09:07 PM9,1 ºC80,4 %947 hPa0,00 l/m2 0º N 1,7 m/s2,80 m/s0 Lux
Thu 12, 09:17 PM9,1 ºC80,1 %948 hPa0,00 l/m2 0º N 1,3 m/s2,00 m/s0 Lux
Thu 12, 09:27 PM9,1 ºC80,7 %948 hPa0,00 l/m2 0º N 0,8 m/s1,90 m/s0 Lux
Thu 12, 09:37 PM8,7 ºC82,3 %948 hPa0,00 l/m2 0º N 0,2 m/s1,00 m/s0 Lux
Thu 12, 09:47 PM8,7 ºC82,9 %948 hPa0,00 l/m2 0º N 0,2 m/s1,10 m/s0 Lux
Thu 12, 09:57 PM8,4 ºC86,0 %948 hPa0,00 l/m2 0º N 0,0 m/s0,00 m/s0 Lux
Thu 12, 10:07 PM8,3 ºC88,5 %948 hPa0,00 l/m2 0º N 0,0 m/s0,00 m/s0 Lux
Thu 12, 10:17 PM8,1 ºC93,8 %948 hPa0,00 l/m2 0º N 0,0 m/s0,00 m/s0 Lux
Thu 12, 10:27 PM7,9 ºC95,5 %948 hPa0,00 l/m2 0º N 0,0 m/s0,00 m/s0 Lux
Thu 12, 10:37 PM8,0 ºC95,3 %948 hPa0,00 l/m2 0º N 0,0 m/s0,00 m/s0 Lux
Thu 12, 10:47 PM8,0 ºC97,1 %949 hPa0,00 l/m2 0º N 0,0 m/s0,00 m/s0 Lux
Thu 12, 10:57 PM7,9 ºC97,5 %949 hPa0,00 l/m2 0º N 0,0 m/s0,00 m/s0 Lux
Thu 12, 11:07 PM7,8 ºC96,9 %949 hPa0,00 l/m2 0º N 0,0 m/s0,00 m/s0 Lux
Thu 12, 11:17 PM7,3 ºC96,5 %949 hPa0,00 l/m2 0º N 0,0 m/s0,00 m/s0 Lux
Thu 12, 11:27 PM7,2 ºC98,8 %949 hPa0,00 l/m2 0º N 0,0 m/s0,00 m/s0 Lux
Thu 12, 11:37 PM7,3 ºC96,9 %949 hPa0,00 l/m2 0º N 0,0 m/s0,00 m/s0 Lux
Thu 12, 11:47 PM7,5 ºC96,1 %949 hPa0,00 l/m2 0º N 0,0 m/s0,00 m/s0 Lux
Thu 12, 11:57 PM7,6 ºC93,2 %949 hPa0,00 l/m2 0º N 0,0 m/s0,00 m/s0 Lux
Fri 13, 12:07 AM7,6 ºC90,4 %949 hPa0,00 l/m2 0º N 0,0 m/s0,00 m/s0 Lux
Fri 13, 12:17 AM8,0 ºC88,1 %949 hPa0,00 l/m2 0º N 0,0 m/s0,00 m/s0 Lux
Fri 13, 12:27 AM8,2 ºC87,8 %949 hPa0,00 l/m2 0º N 0,0 m/s0,00 m/s0 Lux
Fri 13, 12:37 AM8,3 ºC86,2 %949 hPa0,00 l/m2 0º N 0,0 m/s0,30 m/s0 Lux
Fri 13, 12:47 AM8,3 ºC85,8 %949 hPa0,00 l/m2 0º N 0,1 m/s0,40 m/s0 Lux
Fri 13, 12:57 AM8,7 ºC81,7 %949 hPa0,00 l/m2 0º N 0,0 m/s0,20 m/s0 Lux
Fri 13, 01:07 AM8,6 ºC81,7 %949 hPa0,00 l/m2 0º N 0,2 m/s1,10 m/s0 Lux
Fri 13, 01:17 AM8,9 ºC78,3 %949 hPa0,00 l/m2 0º N 0,1 m/s0,90 m/s0 Lux
Fri 13, 01:27 AM8,6 ºC81,3 %949 hPa0,00 l/m2 0º N 0,1 m/s0,50 m/s0 Lux
Fri 13, 01:37 AM8,6 ºC79,3 %949 hPa0,00 l/m2 0º N 0,0 m/s0,20 m/s0 Lux
Fri 13, 01:47 AM7,5 ºC85,9 %949 hPa0,00 l/m2 0º N 0,0 m/s0,00 m/s0 Lux
Fri 13, 01:57 AM6,9 ºC91,3 %949 hPa0,00 l/m2 0º N 0,0 m/s0,00 m/s0 Lux
Fri 13, 02:07 AM6,9 ºC89,8 %949 hPa0,00 l/m2 0º N 0,0 m/s0,00 m/s0 Lux
Fri 13, 02:17 AM6,4 ºC92,8 %949 hPa0,00 l/m2 0º N 0,0 m/s0,00 m/s0 Lux
Fri 13, 02:27 AM5,9 ºC95,1 %949 hPa0,00 l/m2 0º N 0,0 m/s0,00 m/s0 Lux
Fri 13, 02:37 AM7,0 ºC90,1 %949 hPa0,00 l/m2 0º N 0,0 m/s0,10 m/s0 Lux
Fri 13, 02:47 AM7,4 ºC86,9 %949 hPa0,00 l/m2 0º N 0,1 m/s0,90 m/s0 Lux
Fri 13, 02:57 AM7,8 ºC83,7 %949 hPa0,00 l/m2 0º N 0,0 m/s0,20 m/s0 Lux
Fri 13, 03:07 AM7,4 ºC86,7 %949 hPa0,00 l/m2 0º N 0,0 m/s0,00 m/s0 Lux
Fri 13, 03:17 AM7,0 ºC88,1 %949 hPa0,00 l/m2 0º N 0,0 m/s0,00 m/s0 Lux
Fri 13, 03:27 AM6,9 ºC88,9 %949 hPa0,00 l/m2 0º N 0,0 m/s0,00 m/s0 Lux
Fri 13, 03:37 AM6,4 ºC94,0 %949 hPa0,00 l/m2 0º N 0,0 m/s0,00 m/s0 Lux
Fri 13, 03:47 AM6,6 ºC96,8 %949 hPa0,00 l/m2 0º N 0,0 m/s0,00 m/s0 Lux
Fri 13, 03:57 AM6,7 ºC96,9 %949 hPa0,00 l/m2 0º N 0,0 m/s0,20 m/s0 Lux
Fri 13, 04:07 AM7,1 ºC94,1 %949 hPa0,00 l/m2 0º N 1,0 m/s2,30 m/s0 Lux
Fri 13, 04:17 AM8,0 ºC86,6 %949 hPa0,00 l/m2 0º N 0,7 m/s1,60 m/s0 Lux
Fri 13, 04:27 AM7,4 ºC88,1 %948 hPa0,00 l/m2 0º N 0,0 m/s0,00 m/s0 Lux
Fri 13, 04:37 AM7,1 ºC90,0 %949 hPa0,00 l/m2 0º N 0,0 m/s0,00 m/s0 Lux
Fri 13, 04:47 AM6,4 ºC93,2 %948 hPa0,00 l/m2 0º N 0,0 m/s0,00 m/s0 Lux
Fri 13, 04:57 AM5,9 ºC96,0 %948 hPa0,00 l/m2 0º N 0,0 m/s0,00 m/s0 Lux
Fri 13, 05:07 AM5,7 ºC98,0 %948 hPa0,00 l/m2 0º N 0,0 m/s0,00 m/s0 Lux
Fri 13, 05:17 AM5,4 ºC96,4 %948 hPa0,00 l/m2 0º N 0,0 m/s0,00 m/s0 Lux
Fri 13, 05:27 AM5,5 ºC97,9 %948 hPa0,00 l/m2 0º N 0,0 m/s0,00 m/s0 Lux
Fri 13, 05:37 AM5,6 ºC97,8 %948 hPa0,00 l/m2 0º N 0,0 m/s0,00 m/s0 Lux
Fri 13, 05:47 AM5,9 ºC95,9 %948 hPa0,00 l/m2 0º N 0,0 m/s0,10 m/s0 Lux
Fri 13, 05:57 AM6,2 ºC95,1 %948 hPa0,00 l/m2 0º N 0,0 m/s0,00 m/s0 Lux
Fri 13, 06:07 AM5,7 ºC96,6 %948 hPa0,00 l/m2 0º N 0,0 m/s0,00 m/s0 Lux
Fri 13, 06:17 AM5,5 ºC97,2 %948 hPa0,00 l/m2 0º N 0,0 m/s0,00 m/s0 Lux
Fri 13, 06:27 AM5,3 ºC96,8 %948 hPa0,00 l/m2 0º N 0,0 m/s0,00 m/s0 Lux
Fri 13, 06:37 AM5,4 ºC97,3 %948 hPa0,00 l/m2 0º N 0,0 m/s0,10 m/s0 Lux
Fri 13, 06:47 AM5,3 ºC97,1 %948 hPa0,00 l/m2 0º N 0,0 m/s0,20 m/s0 Lux
Fri 13, 06:57 AM5,1 ºC97,5 %948 hPa0,00 l/m2 0º N 0,0 m/s0,00 m/s0 Lux
Fri 13, 07:07 AM5,4 ºC96,0 %948 hPa0,00 l/m2 0º N 0,0 m/s0,00 m/s0 Lux
Fri 13, 07:17 AM5,3 ºC96,2 %948 hPa0,00 l/m2 0º N 0,0 m/s0,00 m/s0 Lux
Fri 13, 07:26 AM5,7 ºC95,2 %948 hPa0,00 l/m2 0º N 0,0 m/s0,00 m/s0 Lux
Fri 13, 07:36 AM5,6 ºC95,8 %948 hPa0,00 l/m2 0º N 0,0 m/s0,00 m/s0 Lux
Fri 13, 07:46 AM5,8 ºC95,8 %948 hPa0,00 l/m2 0º N 0,0 m/s0,00 m/s0 Lux
Fri 13, 07:56 AM6,1 ºC96,7 %949 hPa0,00 l/m2 0º N 0,0 m/s0,00 m/s0 Lux
Fri 13, 08:06 AM6,3 ºC95,9 %949 hPa0,00 l/m2 0º N 0,0 m/s0,00 m/s0 Lux
Fri 13, 08:16 AM6,4 ºC94,0 %949 hPa0,00 l/m2 0º N 0,0 m/s0,00 m/s0 Lux
Fri 13, 08:26 AM6,8 ºC94,9 %949 hPa0,00 l/m2 0º N 0,0 m/s0,00 m/s0 Lux
Fri 13, 08:36 AM6,8 ºC91,5 %949 hPa0,00 l/m2 0º N 0,0 m/s0,00 m/s0 Lux
Fri 13, 08:46 AM7,1 ºC92,1 %949 hPa0,00 l/m2 0º N 0,0 m/s0,00 m/s0 Lux
Fri 13, 08:56 AM8,0 ºC88,8 %949 hPa0,00 l/m2 0º N 0,0 m/s0,20 m/s0 Lux
Fri 13, 09:06 AM8,8 ºC81,6 %949 hPa0,00 l/m2 0º N 0,0 m/s0,40 m/s0 Lux
Fri 13, 09:16 AM8,0 ºC87,7 %949 hPa0,00 l/m2 0º N 0,0 m/s0,20 m/s0 Lux
Fri 13, 09:26 AM8,7 ºC81,0 %949 hPa0,00 l/m2 0º N 0,0 m/s0,30 m/s0 Lux
Fri 13, 09:36 AM9,8 ºC77,1 %949 hPa0,00 l/m2 0º N 0,1 m/s0,40 m/s0 Lux
Fri 13, 09:46 AM12,7 ºC65,0 %949 hPa0,00 l/m2 0º N 0,3 m/s0,60 m/s0 Lux
Fri 13, 09:56 AM10,8 ºC69,8 %949 hPa0,00 l/m2 0º N 0,2 m/s0,80 m/s0 Lux
Fri 13, 10:06 AM10,6 ºC72,5 %949 hPa0,00 l/m2 0º N 0,4 m/s0,90 m/s0 Lux
Fri 13, 10:16 AM10,0 ºC72,5 %949 hPa0,00 l/m2 0º N 0,2 m/s0,50 m/s0 Lux
Fri 13, 10:26 AM10,4 ºC71,7 %949 hPa0,00 l/m2 0º N 0,2 m/s0,60 m/s1259.7 Lux
Fri 13, 10:36 AM10,4 ºC71,9 %949 hPa0,00 l/m2 0º N 0,7 m/s1,60 m/s1087.9 Lux
Fri 13, 10:46 AM10,2 ºC72,1 %949 hPa0,00 l/m2 0º N 1,1 m/s2,40 m/s887.7 Lux
Fri 13, 10:56 AM10,0 ºC74,5 %949 hPa0,00 l/m2 0º N 0,7 m/s1,80 m/s434.3 Lux
Fri 13, 11:06 AM9,8 ºC76,5 %949 hPa0,00 l/m2 0º N 0,4 m/s1,00 m/s620.3 Lux
Fri 13, 11:16 AM9,6 ºC81,5 %949 hPa0,00 l/m2 0º N 0,2 m/s0,60 m/s887.7 Lux
Fri 13, 11:26 AM9,6 ºC82,0 %949 hPa0,00 l/m2 0º N 0,9 m/s2,50 m/s1360.7 Lux
Fri 13, 11:36 AM9,7 ºC81,5 %950 hPa0,00 l/m2 0º N 0,0 m/s0,00 m/s1473.8 Lux
Fri 13, 11:46 AM10,0 ºC79,3 %950 hPa0,71 l/m2 0º N 0,0 m/s0,00 m/s1601 Lux
Fri 13, 11:56 AM9,8 ºC82,3 %950 hPa0,00 l/m2 0º N 0,0 m/s0,00 m/s1535.5 Lux
Fri 13, 12:06 PM9,9 ºC80,2 %950 hPa0,00 l/m2 0º N 0,8 m/s2,00 m/s1998 Lux
Fri 13, 12:16 PM10,2 ºC81,3 %950 hPa0,08 l/m2 0º N 0,4 m/s1,10 m/s3800.8 Lux
Fri 13, 12:26 PM11,1 ºC78,0 %950 hPa0,00 l/m2 0º N 0,7 m/s1,20 m/s2197.4 Lux
Fri 13, 12:36 PM10,7 ºC78,8 %950 hPa0,00 l/m2 0º N 0,7 m/s1,90 m/s1670.6 Lux
Fri 13, 12:46 PM10,6 ºC78,2 %950 hPa0,08 l/m2 0º N 0,7 m/s1,90 m/s1308.8 Lux
Fri 13, 12:56 PM9,7 ºC81,3 %950 hPa0,08 l/m2 0º N 0,5 m/s1,20 m/s2426.9 Lux
Fri 13, 01:06 PM10,1 ºC80,5 %950 hPa0,08 l/m2 0º N 1,0 m/s2,00 m/s1670.6 Lux
Fri 13, 01:16 PM9,9 ºC79,4 %950 hPa0,08 l/m2 0º N 1,3 m/s2,70 m/s1670.6 Lux
Fri 13, 01:26 PM9,5 ºC78,3 %950 hPa0,00 l/m2 0º N 0,2 m/s0,80 m/s2426.9 Lux
Fri 13, 01:36 PM11,3 ºC78,6 %950 hPa0,08 l/m2 0º N 0,2 m/s1,20 m/s1744.7 Lux
Fri 13, 01:46 PM11,0 ºC76,0 %950 hPa0,00 l/m2 0º N 1,2 m/s1,80 m/s832.8 Lux
Fri 13, 01:56 PM9,7 ºC83,2 %950 hPa0,00 l/m2 0º N 0,7 m/s1,60 m/s1535.5 Lux
Fri 13, 02:06 PM10,1 ºC78,3 %950 hPa0,00 l/m2 0º N 0,5 m/s1,00 m/s1087.9 Lux
Fri 13, 02:16 PM9,9 ºC81,4 %950 hPa0,00 l/m2 0º N 0,5 m/s0,80 m/s1744.7 Lux
Fri 13, 02:26 PM10,6 ºC78,4 %950 hPa0,00 l/m2 0º N 0,7 m/s1,30 m/s832.8 Lux
Fri 13, 02:36 PM10,1 ºC80,3 %950 hPa0,00 l/m2 0º N 0,6 m/s1,40 m/s917.2 Lux
Fri 13, 02:46 PM10,0 ºC81,6 %950 hPa0,00 l/m2 0º N 0,5 m/s1,40 m/s759.2 Lux
Fri 13, 02:56 PM9,9 ºC83,2 %949 hPa0,00 l/m2 0º N 0,5 m/s1,90 m/s490.1 Lux
Fri 13, 03:06 PM9,8 ºC83,4 %950 hPa0,00 l/m2 0º N 1,4 m/s2,50 m/s542.6 Lux
Fri 13, 03:16 PM9,2 ºC82,6 %950 hPa0,08 l/m2 0º N 1,3 m/s2,50 m/s378.8 Lux
Fri 13, 03:26 PM8,9 ºC85,9 %950 hPa0,25 l/m2 0º N 0,8 m/s1,60 m/s782.6 Lux
Fri 13, 03:36 PM8,9 ºC84,4 %950 hPa0,17 l/m2 0º N 0,8 m/s1,50 m/s1050.3 Lux
Fri 13, 03:46 PM9,3 ºC82,4 %950 hPa0,00 l/m2 0º N 1,0 m/s1,40 m/s1169.2 Lux
Fri 13, 03:56 PM9,5 ºC81,4 %950 hPa0,08 l/m2 0º N 0,5 m/s1,70 m/s1050.3 Lux
Fri 13, 04:06 PM9,6 ºC81,9 %950 hPa0,00 l/m2 0º N 0,8 m/s1,90 m/s1601 Lux
Fri 13, 04:16 PM10,0 ºC81,5 %950 hPa0,00 l/m2 0º N 0,8 m/s1,20 m/s1308.8 Lux
Fri 13, 04:26 PM10,3 ºC80,1 %950 hPa0,00 l/m2 0º N 0,4 m/s1,30 m/s980.4 Lux
Fri 13, 04:36 PM10,6 ºC80,9 %950 hPa0,00 l/m2 0º N 0,9 m/s1,40 m/s1744.7 Lux
Fri 13, 04:46 PM10,6 ºC80,4 %950 hPa0,00 l/m2 0º N 1,1 m/s1,70 m/s1127.5 Lux
Fri 13, 04:56 PM10,4 ºC79,4 %950 hPa0,00 l/m2 0º N 0,7 m/s1,50 m/s1127.5 Lux
Fri 13, 05:06 PM10,4 ºC80,6 %950 hPa0,00 l/m2 0º N 0,7 m/s1,20 m/s1308.8 Lux
Fri 13, 05:16 PM10,2 ºC82,0 %950 hPa0,08 l/m2 0º N 0,6 m/s1,40 m/s1213.3 Lux
Fri 13, 05:26 PM10,3 ºC81,1 %950 hPa0,00 l/m2 0º N 0,4 m/s0,90 m/s1744.7 Lux
Fri 13, 05:36 PM10,5 ºC80,9 %950 hPa0,00 l/m2 0º N 0,4 m/s0,70 m/s2308 Lux
Fri 13, 05:45 PM11,7 ºC76,5 %950 hPa0,00 l/m2 0º N 0,8 m/s1,40 m/s2692.9 Lux
Fri 13, 05:55 PM11,5 ºC74,7 %950 hPa0,00 l/m2 0º N 0,8 m/s1,80 m/s1308.8 Lux
Fri 13, 06:05 PM11,2 ºC76,7 %951 hPa0,00 l/m2 0º N 1,0 m/s1,70 m/s1360.7 Lux
Fri 13, 06:15 PM10,6 ºC75,9 %951 hPa0,00 l/m2 0º N 0,6 m/s1,00 m/s887.7 Lux
Fri 13, 06:25 PM10,4 ºC78,2 %951 hPa0,00 l/m2 0º N 0,8 m/s1,70 m/s656 Lux
Fri 13, 06:35 PM10,0 ºC80,0 %951 hPa0,00 l/m2 0º N 0,2 m/s0,70 m/s528.7 Lux
Fri 13, 06:45 PM10,0 ºC80,7 %951 hPa0,00 l/m2 0º N 0,0 m/s0,10 m/s387.3 Lux
Fri 13, 06:55 PM10,1 ºC81,0 %951 hPa0,00 l/m2 0º N 0,3 m/s1,10 m/s455.5 Lux
Fri 13, 07:05 PM9,8 ºC79,7 %951 hPa0,00 l/m2 0º N 0,3 m/s0,60 m/s455.5 Lux
Fri 13, 07:15 PM10,0 ºC80,7 %951 hPa0,00 l/m2 0º N 0,1 m/s0,30 m/s414.6 Lux
Fri 13, 07:25 PM10,2 ºC79,6 %951 hPa0,00 l/m2 0º N 0,1 m/s0,50 m/s294.7 Lux
Fri 13, 07:35 PM10,0 ºC80,5 %951 hPa0,00 l/m2 0º N 0,0 m/s0,00 m/s219.2 Lux
Fri 13, 07:45 PM10,0 ºC80,3 %952 hPa0,00 l/m2 0º N 0,0 m/s0,20 m/s145.4 Lux
Fri 13, 07:55 PM9,8 ºC80,7 %952 hPa0,00 l/m2 0º N 0,0 m/s0,00 m/s139.3 Lux
Fri 13, 08:05 PM9,8 ºC83,7 %952 hPa0,00 l/m2 0º N 0,0 m/s0,10 m/s119.8 Lux
Fri 13, 08:15 PM9,8 ºC84,2 %952 hPa0,00 l/m2 0º N 0,0 m/s0,00 m/s93.3 Lux
Fri 13, 08:25 PM9,7 ºC87,1 %952 hPa0,00 l/m2 0º N 0,0 m/s0,00 m/s102.8 Lux
Fri 13, 08:35 PM9,7 ºC85,8 %952 hPa0,00 l/m2 0º N 0,0 m/s0,00 m/s70 Lux
Fri 13, 08:45 PM9,6 ºC87,1 %952 hPa0,00 l/m2 0º N 0,0 m/s0,00 m/s24.8 Lux
Fri 13, 08:55 PM9,1 ºC86,6 %952 hPa0,00 l/m2 0º N 0,0 m/s0,00 m/s7.8 Lux
Fri 13, 09:05 PM8,3 ºC89,4 %953 hPa0,00 l/m2 0º N 0,0 m/s0,00 m/s3.4 Lux
Fri 13, 09:15 PM7,8 ºC93,3 %953 hPa0,00 l/m2 0º N 0,0 m/s0,00 m/s2.4 Lux
Fri 13, 09:25 PM8,4 ºC91,3 %953 hPa0,00 l/m2 0º N 0,0 m/s0,00 m/s2.3 Lux
Fri 13, 09:35 PM7,9 ºC93,1 %953 hPa0,00 l/m2 0º N 0,0 m/s0,00 m/s2.4 Lux
Fri 13, 09:45 PM7,6 ºC94,9 %953 hPa0,00 l/m2 0º N 0,0 m/s0,00 m/s2.3 Lux
Fri 13, 09:55 PM7,5 ºC94,8 %953 hPa0,00 l/m2 0º N 0,0 m/s0,00 m/s2.3 Lux
Fri 13, 10:05 PM7,9 ºC95,7 %953 hPa0,00 l/m2 0º N 0,0 m/s0,00 m/s2.3 Lux
Fri 13, 10:15 PM7,7 ºC92,5 %954 hPa0,00 l/m2 0º N 0,0 m/s0,00 m/s2.2 Lux
Fri 13, 10:25 PM7,5 ºC93,4 %954 hPa0,00 l/m2 0º N 0,0 m/s0,00 m/s2.2 Lux
Fri 13, 10:35 PM7,7 ºC93,8 %954 hPa0,00 l/m2 0º N 0,0 m/s0,00 m/s2.3 Lux
Fri 13, 10:45 PM7,3 ºC95,3 %954 hPa0,00 l/m2 0º N 0,0 m/s0,00 m/s2.3 Lux
Fri 13, 10:55 PM6,8 ºC96,5 %955 hPa0,00 l/m2 0º N 0,0 m/s0,00 m/s2.3 Lux
Fri 13, 11:05 PM6,5 ºC97,4 %955 hPa0,00 l/m2 0º N 0,0 m/s0,00 m/s2.3 Lux
Fri 13, 11:15 PM6,8 ºC97,4 %955 hPa0,00 l/m2 0º N 0,0 m/s0,00 m/s2.3 Lux
Fri 13, 11:25 PM6,6 ºC97,2 %955 hPa0,00 l/m2 0º N 0,0 m/s0,10 m/s2.3 Lux
Fri 13, 11:35 PM6,7 ºC96,7 %955 hPa0,00 l/m2 0º N 0,2 m/s0,80 m/s2.3 Lux
Fri 13, 11:45 PM7,0 ºC96,1 %955 hPa0,00 l/m2 0º N 0,4 m/s0,90 m/s2.3 Lux
Fri 13, 11:55 PM6,5 ºC97,0 %955 hPa0,00 l/m2 0º N 0,1 m/s0,50 m/s2.3 Lux
Sat 14, 12:05 AM6,7 ºC96,5 %955 hPa0,00 l/m2 0º N 0,0 m/s0,00 m/s2.3 Lux
Sat 14, 12:15 AM6,9 ºC95,6 %956 hPa0,00 l/m2 0º N 0,0 m/s0,10 m/s2.3 Lux
Sat 14, 12:25 AM7,0 ºC95,1 %956 hPa0,00 l/m2 0º N 0,0 m/s0,00 m/s2.2 Lux
Sat 14, 12:35 AM6,5 ºC96,5 %956 hPa0,00 l/m2 0º N 0,0 m/s0,00 m/s2.2 Lux
Sat 14, 12:45 AM6,7 ºC97,0 %956 hPa0,00 l/m2 0º N 0,0 m/s0,00 m/s2.2 Lux
Sat 14, 12:55 AM6,3 ºC97,9 %956 hPa0,00 l/m2 0º N 0,0 m/s0,00 m/s2.3 Lux
Sat 14, 01:05 AM6,6 ºC97,6 %956 hPa0,00 l/m2 0º N 0,0 m/s0,00 m/s2.2 Lux
Sat 14, 01:15 AM6,0 ºC98,2 %956 hPa0,00 l/m2 0º N 0,0 m/s0,00 m/s2.3 Lux
Sat 14, 01:25 AM6,4 ºC99,1 %956 hPa0,00 l/m2 0º N 0,0 m/s0,00 m/s2.2 Lux
Sat 14, 01:35 AM6,4 ºC96,6 %956 hPa0,00 l/m2 0º N 0,0 m/s0,00 m/s2.3 Lux
Sat 14, 01:45 AM5,7 ºC97,5 %956 hPa0,00 l/m2 0º N 0,0 m/s0,00 m/s2.3 Lux
Sat 14, 01:55 AM6,2 ºC98,7 %956 hPa0,00 l/m2 0º N 0,0 m/s0,00 m/s2.2 Lux
Sat 14, 02:05 AM6,0 ºC99,2 %956 hPa0,00 l/m2 0º N 0,0 m/s0,00 m/s2.3 Lux
Sat 14, 02:15 AM5,6 ºC99,4 %956 hPa0,00 l/m2 0º N 0,0 m/s0,00 m/s2.2 Lux
Sat 14, 02:25 AM5,9 ºC100,0 %956 hPa0,00 l/m2 0º N 0,0 m/s0,00 m/s2.3 Lux
Sat 14, 02:35 AM5,5 ºC99,6 %956 hPa0,00 l/m2 0º N 0,0 m/s0,00 m/s2.2 Lux
Sat 14, 02:45 AM5,2 ºC99,9 %956 hPa0,00 l/m2 0º N 0,0 m/s0,00 m/s2.3 Lux
Sat 14, 02:55 AM5,4 ºC100,0 %956 hPa0,00 l/m2 0º N 0,0 m/s0,00 m/s2.3 Lux
Sat 14, 03:05 AM5,4 ºC100,0 %957 hPa0,00 l/m2 0º N 0,0 m/s0,00 m/s2.2 Lux
Sat 14, 03:15 AM5,6 ºC100,0 %957 hPa0,00 l/m2 0º N 0,0 m/s0,00 m/s2.3 Lux
Sat 14, 03:25 AM5,4 ºC99,1 %957 hPa0,00 l/m2 0º N 0,0 m/s0,00 m/s2.2 Lux
Sat 14, 03:35 AM5,3 ºC100,0 %957 hPa0,00 l/m2 0º N 0,0 m/s0,00 m/s2.2 Lux
Sat 14, 03:45 AM5,4 ºC100,0 %957 hPa0,00 l/m2 0º N 0,0 m/s0,00 m/s2.2 Lux
Sat 14, 03:55 AM5,4 ºC100,0 %957 hPa0,00 l/m2 0º N 0,0 m/s0,00 m/s2.3 Lux
Sat 14, 04:04 AM5,4 ºC100,0 %957 hPa0,00 l/m2 0º N 0,0 m/s0,00 m/s2.2 Lux
Sat 14, 04:14 AM5,4 ºC100,0 %957 hPa0,00 l/m2 0º N 0,0 m/s0,00 m/s2.3 Lux
Sat 14, 04:24 AM5,9 ºC100,0 %957 hPa0,00 l/m2 0º N 0,0 m/s0,00 m/s2.2 Lux
Sat 14, 04:34 AM6,0 ºC100,0 %957 hPa0,00 l/m2 0º N 0,0 m/s0,00 m/s2.2 Lux
Sat 14, 04:44 AM5,7 ºC100,0 %957 hPa0,00 l/m2 0º N 0,0 m/s0,00 m/s2.3 Lux
Sat 14, 04:54 AM5,8 ºC100,0 %957 hPa0,00 l/m2 0º N 0,0 m/s0,00 m/s2.3 Lux
Sat 14, 05:04 AM5,8 ºC100,0 %957 hPa0,00 l/m2 0º N 0,0 m/s0,00 m/s2.3 Lux
Sat 14, 05:14 AM5,8 ºC100,0 %957 hPa0,00 l/m2 0º N 0,0 m/s0,00 m/s2.3 Lux
Sat 14, 05:24 AM5,8 ºC100,0 %957 hPa0,00 l/m2 0º N 0,0 m/s0,00 m/s2.3 Lux
Sat 14, 05:34 AM5,7 ºC100,0 %957 hPa0,00 l/m2 0º N 0,0 m/s0,00 m/s2.3 Lux
Sat 14, 05:44 AM6,0 ºC100,0 %957 hPa0,00 l/m2 0º N 0,0 m/s0,00 m/s2.2 Lux
Sat 14, 05:54 AM5,3 ºC100,0 %957 hPa0,00 l/m2 0º N 0,0 m/s0,00 m/s2.3 Lux
Sat 14, 06:04 AM4,1 ºC100,0 %957 hPa0,00 l/m2 0º N 0,0 m/s0,00 m/s2.3 Lux
Sat 14, 06:14 AM3,5 ºC100,0 %957 hPa0,00 l/m2 0º N 0,0 m/s0,00 m/s2.2 Lux
Sat 14, 06:24 AM5,3 ºC100,0 %957 hPa0,00 l/m2 0º N 0,0 m/s0,00 m/s2.2 Lux
Sat 14, 06:34 AM4,9 ºC100,0 %957 hPa0,00 l/m2 0º N 0,0 m/s0,00 m/s2.2 Lux
Sat 14, 06:44 AM5,3 ºC100,0 %958 hPa0,00 l/m2 0º N 0,0 m/s0,00 m/s2.2 Lux
Sat 14, 06:54 AM5,2 ºC100,0 %958 hPa0,00 l/m2 0º N 0,0 m/s0,00 m/s2.2 Lux
Sat 14, 07:04 AM5,6 ºC100,0 %958 hPa0,00 l/m2 0º N 0,0 m/s0,00 m/s2.2 Lux
Sat 14, 07:14 AM5,2 ºC100,0 %958 hPa0,00 l/m2 0º N 0,0 m/s0,00 m/s2.3 Lux
Sat 14, 07:24 AM5,6 ºC100,0 %958 hPa0,00 l/m2 0º N 0,0 m/s0,00 m/s2.4 Lux
Sat 14, 07:34 AM5,3 ºC100,0 %958 hPa0,00 l/m2 0º N 0,0 m/s0,00 m/s3.9 Lux
Sat 14, 07:44 AM5,5 ºC100,0 %958 hPa0,00 l/m2 0º N 0,0 m/s0,00 m/s11.4 Lux
Sat 14, 07:54 AM5,7 ºC100,0 %958 hPa0,00 l/m2 0º N 0,0 m/s0,00 m/s34 Lux
Sat 14, 08:04 AM5,3 ºC100,0 %958 hPa0,00 l/m2 0º N 0,0 m/s0,00 m/s66.5 Lux
Sat 14, 08:14 AM5,3 ºC100,0 %959 hPa0,00 l/m2 0º N 0,0 m/s0,00 m/s113.7 Lux
Sat 14, 08:24 AM5,6 ºC100,0 %959 hPa0,00 l/m2 0º N 0,0 m/s0,00 m/s201.3 Lux
Sat 14, 08:34 AM6,0 ºC100,0 %959 hPa0,00 l/m2 0º N 0,0 m/s0,00 m/s306.7 Lux
Sat 14, 08:44 AM5,9 ºC99,1 %959 hPa0,00 l/m2 0º N 0,0 m/s0,00 m/s455.5 Lux
Sat 14, 08:54 AM6,1 ºC98,6 %959 hPa0,00 l/m2 0º N 0,0 m/s0,00 m/s502.5 Lux
Sat 14, 09:04 AM6,7 ºC96,4 %959 hPa0,00 l/m2 0º N 0,0 m/s0,10 m/s444.7 Lux
Sat 14, 09:14 AM7,0 ºC95,1 %959 hPa0,00 l/m2 0º N 0,0 m/s0,00 m/s620.3 Lux
Sat 14, 09:24 AM7,4 ºC94,9 %959 hPa0,00 l/m2 0º N 0,0 m/s0,00 m/s1127.5 Lux
Sat 14, 09:34 AM8,2 ºC93,1 %959 hPa0,00 l/m2 0º N 0,0 m/s0,00 m/s2094.2 Lux
Sat 14, 09:44 AM9,4 ºC88,2 %959 hPa0,00 l/m2 0º N 0,0 m/s0,00 m/s2554.9 Lux
Sat 14, 09:54 AM10,5 ºC85,3 %959 hPa0,00 l/m2 0º N 0,0 m/s0,00 m/s3178.1 Lux
Sat 14, 10:04 AM11,2 ºC82,3 %960 hPa0,00 l/m2 0º N 0,0 m/s0,00 m/s980.4 Lux
Sat 14, 10:14 AM11,2 ºC79,9 %960 hPa0,00 l/m2 0º N 0,0 m/s0,20 m/s3368.1 Lux
Sat 14, 10:24 AM12,2 ºC78,2 %960 hPa0,00 l/m2 0º N 0,0 m/s0,00 m/s5309.4 Lux
Sat 14, 10:34 AM13,4 ºC76,7 %960 hPa0,00 l/m2 0º N 0,0 m/s0,00 m/s5713.1 Lux
Sat 14, 10:44 AM13,9 ºC74,9 %960 hPa0,00 l/m2 0º N 0,0 m/s0,00 m/s6665.8 Lux
Sat 14, 10:54 AM14,8 ºC70,2 %960 hPa0,00 l/m2 0º N 0,1 m/s0,60 m/s7230.4 Lux
Sat 14, 11:04 AM14,6 ºC68,0 %960 hPa0,00 l/m2 0º N 0,2 m/s1,00 m/s7230.4 Lux
Sat 14, 11:14 AM14,4 ºC66,4 %960 hPa0,00 l/m2 0º N 0,6 m/s2,00 m/s7866.8 Lux
Sat 14, 11:24 AM14,9 ºC66,5 %960 hPa0,00 l/m2 0º N 0,1 m/s0,60 m/s8587.7 Lux
Sat 14, 11:34 AM16,3 ºC61,0 %960 hPa0,00 l/m2 0º N 0,3 m/s2,10 m/s3368.1 Lux
Sat 14, 11:44 AM15,7 ºC62,6 %960 hPa0,00 l/m2 0º N 0,2 m/s1,00 m/s10347.3 Lux
Sat 14, 11:54 AM14,8 ºC68,3 %960 hPa0,00 l/m2 0º N 0,3 m/s2,10 m/s10347.3 Lux
Sat 14, 12:04 PM18,4 ºC52,9 %960 hPa0,00 l/m2 0º N 0,0 m/s0,20 m/s9408.2 Lux
Sat 14, 12:14 PM18,8 ºC51,4 %960 hPa0,00 l/m2 0º N 0,4 m/s2,00 m/s10347.3 Lux
Sat 14, 12:24 PM19,0 ºC51,7 %960 hPa0,00 l/m2 0º N 0,7 m/s2,70 m/s10347.3 Lux
Sat 14, 12:34 PM18,9 ºC50,9 %960 hPa0,00 l/m2 0º N 0,4 m/s2,40 m/s10347.3 Lux
Sat 14, 12:44 PM19,1 ºC50,2 %960 hPa0,00 l/m2 0º N 0,2 m/s0,70 m/s11428.3 Lux
Sat 14, 12:54 PM20,8 ºC45,9 %960 hPa0,00 l/m2 0º N 0,5 m/s1,70 m/s10347.3 Lux
Sat 14, 01:04 PM20,5 ºC47,9 %960 hPa0,00 l/m2 0º N 0,1 m/s0,30 m/s11428.3 Lux
Sat 14, 01:14 PM21,9 ºC43,8 %960 hPa0,00 l/m2 0º N 0,7 m/s1,80 m/s11428.3 Lux
Sat 14, 01:24 PM21,0 ºC45,6 %960 hPa0,00 l/m2 0º N 0,5 m/s1,60 m/s11428.3 Lux
Sat 14, 01:34 PM21,9 ºC43,8 %960 hPa0,00 l/m2 0º N 1,2 m/s3,00 m/s11428.3 Lux
Sat 14, 01:44 PM21,4 ºC44,5 %960 hPa0,00 l/m2 0º N 1,1 m/s2,80 m/s14141.9 Lux
Sat 14, 01:54 PM21,1 ºC42,5 %960 hPa0,00 l/m2 0º N 1,1 m/s2,90 m/s12680.7 Lux
Sat 14, 02:04 PM23,1 ºC38,9 %960 hPa0,00 l/m2 0º N 2,0 m/s4,10 m/s6162.9 Lux
Sat 14, 02:14 PM23,2 ºC35,9 %960 hPa0,00 l/m2 0º N 1,4 m/s3,30 m/s15860.1 Lux
Sat 14, 02:23 PM23,3 ºC36,0 %960 hPa0,00 l/m2 0º N 1,3 m/s3,10 m/s4047.8 Lux
Sat 14, 02:33 PM21,9 ºC36,7 %960 hPa0,00 l/m2 0º N 1,7 m/s3,40 m/s14141.9 Lux
Sat 14, 02:43 PM21,2 ºC40,5 %960 hPa0,00 l/m2 0º N 1,5 m/s2,50 m/s5713.1 Lux
Sat 14, 02:53 PM19,6 ºC41,5 %960 hPa0,00 l/m2 0º N 1,7 m/s3,60 m/s14141.9 Lux
Sat 14, 03:03 PM23,1 ºC34,5 %960 hPa0,00 l/m2 0º N 2,3 m/s3,50 m/s12680.7 Lux
Sat 14, 03:13 PM22,3 ºC36,1 %960 hPa0,00 l/m2 0º N 1,8 m/s2,70 m/s6665.8 Lux
Sat 14, 03:23 PM21,1 ºC38,8 %960 hPa0,00 l/m2 0º N 1,8 m/s2,90 m/s12680.7 Lux
Sat 14, 03:33 PM22,3 ºC39,0 %960 hPa0,00 l/m2 0º N 1,8 m/s3,00 m/s2197.4 Lux
Sat 14, 03:43 PM17,4 ºC51,1 %960 hPa0,00 l/m2 0º N 1,2 m/s3,10 m/s1473.8 Lux
Sat 14, 03:53 PM18,5 ºC48,0 %960 hPa0,00 l/m2 0º N 2,3 m/s4,40 m/s14141.9 Lux
Sat 14, 04:03 PM18,7 ºC47,1 %960 hPa0,00 l/m2 0º N 2,2 m/s2,90 m/s1670.6 Lux
Sat 14, 04:13 PM17,2 ºC49,6 %960 hPa0,00 l/m2 0º N 1,7 m/s3,90 m/s12680.7 Lux
Sat 14, 04:23 PM19,2 ºC43,3 %960 hPa0,00 l/m2 0º N 1,9 m/s3,30 m/s12680.7 Lux
Sat 14, 04:33 PM18,9 ºC42,8 %960 hPa0,00 l/m2 0º N 1,3 m/s2,90 m/s2308 Lux
Sat 14, 04:43 PM19,1 ºC42,2 %960 hPa0,00 l/m2 0º N 1,4 m/s2,10 m/s1823.7 Lux
Sat 14, 04:53 PM16,9 ºC49,4 %960 hPa0,00 l/m2 0º N 0,8 m/s1,80 m/s1360.7 Lux
Sat 14, 05:03 PM16,5 ºC49,7 %960 hPa0,00 l/m2 0º N 0,7 m/s1,50 m/s1670.6 Lux
Sat 14, 05:13 PM19,0 ºC40,9 %960 hPa0,00 l/m2 0º N 1,0 m/s1,90 m/s11428.3 Lux
Sat 14, 05:23 PM17,4 ºC47,9 %960 hPa0,00 l/m2 0º N 1,4 m/s2,80 m/s10347.3 Lux
Sat 14, 05:33 PM22,1 ºC34,2 %960 hPa0,00 l/m2 0º N 2,5 m/s3,80 m/s9408.2 Lux
Sat 14, 05:43 PM21,6 ºC34,1 %959 hPa0,00 l/m2 0º N 2,3 m/s3,50 m/s9408.2 Lux
Sat 14, 05:53 PM21,0 ºC35,5 %959 hPa0,00 l/m2 0º N 1,3 m/s3,30 m/s9408.2 Lux
Sat 14, 06:03 PM21,6 ºC34,0 %959 hPa0,00 l/m2 0º N 1,8 m/s3,20 m/s8587.7 Lux
Sat 14, 06:13 PM20,6 ºC37,6 %960 hPa0,00 l/m2 0º N 0,9 m/s1,50 m/s1670.6 Lux
Sat 14, 06:23 PM18,0 ºC45,2 %960 hPa0,00 l/m2 0º N 0,3 m/s1,00 m/s6665.8 Lux
Sat 14, 06:33 PM18,9 ºC43,7 %960 hPa0,00 l/m2 0º N 0,7 m/s2,00 m/s7866.8 Lux
Sat 14, 06:43 PM20,2 ºC42,3 %960 hPa0,00 l/m2 0º N 0,4 m/s0,80 m/s1998 Lux
Sat 14, 06:53 PM18,9 ºC46,7 %960 hPa0,00 l/m2 0º N 0,8 m/s1,60 m/s656 Lux
Sat 14, 07:03 PM18,4 ºC48,1 %960 hPa0,00 l/m2 0º N 0,5 m/s1,10 m/s556.9 Lux
Sat 14, 07:13 PM16,5 ºC56,2 %960 hPa0,00 l/m2 0º N 0,4 m/s0,70 m/s832.8 Lux
Sat 14, 07:23 PM16,7 ºC57,6 %960 hPa0,00 l/m2 0º N 0,4 m/s1,20 m/s455.5 Lux
Sat 14, 07:33 PM16,1 ºC61,0 %960 hPa0,00 l/m2 0º N 0,6 m/s1,20 m/s571.9 Lux
Sat 14, 07:43 PM16,5 ºC59,6 %960 hPa0,00 l/m2 0º N 1,1 m/s1,70 m/s300.6 Lux
Sat 14, 07:53 PM16,0 ºC60,1 %960 hPa0,00 l/m2 0º N 1,2 m/s2,10 m/s674.9 Lux
Sat 14, 08:03 PM16,4 ºC59,8 %960 hPa0,00 l/m2 0º N 0,5 m/s1,20 m/s1744.7 Lux
Sat 14, 08:13 PM16,9 ºC58,7 %960 hPa0,00 l/m2 0º N 0,5 m/s1,10 m/s1127.5 Lux
Sat 14, 08:23 PM16,5 ºC59,7 %960 hPa0,00 l/m2 0º N 1,2 m/s1,60 m/s782.6 Lux
Sat 14, 08:33 PM16,0 ºC61,2 %960 hPa0,00 l/m2 0º N 1,5 m/s2,20 m/s306.7 Lux
Sat 14, 08:43 PM15,4 ºC62,1 %960 hPa0,00 l/m2 0º N 2,0 m/s2,90 m/s65.1 Lux
Sat 14, 08:53 PM14,6 ºC65,4 %960 hPa0,00 l/m2 0º N 1,8 m/s2,30 m/s22.8 Lux
Sat 14, 09:03 PM14,3 ºC66,6 %961 hPa0,00 l/m2 0º N 1,9 m/s2,70 m/s6.5 Lux
Sat 14, 09:13 PM14,0 ºC68,2 %961 hPa0,00 l/m2 0º N 1,3 m/s1,90 m/s2.7 Lux
Sat 14, 09:23 PM13,6 ºC70,0 %961 hPa0,00 l/m2 0º N 1,1 m/s1,60 m/s2.2 Lux
Sat 14, 09:33 PM13,5 ºC70,7 %961 hPa0,00 l/m2 0º N 0,7 m/s1,10 m/s2.2 Lux
Sat 14, 09:43 PM13,1 ºC72,3 %962 hPa0,00 l/m2 0º N 2,0 m/s3,00 m/s2.3 Lux
Sat 14, 09:53 PM13,8 ºC70,6 %962 hPa0,00 l/m2 0º N 1,6 m/s3,20 m/s2.2 Lux
Sat 14, 10:03 PM13,3 ºC72,7 %962 hPa0,00 l/m2 0º N 1,0 m/s1,60 m/s2.3 Lux
Sat 14, 10:13 PM12,6 ºC76,1 %962 hPa0,00 l/m2 0º N 0,6 m/s1,50 m/s2.2 Lux
Sat 14, 10:23 PM12,4 ºC77,5 %962 hPa0,00 l/m2 0º N 0,1 m/s0,30 m/s2.3 Lux
Sat 14, 10:33 PM12,1 ºC79,7 %962 hPa0,00 l/m2 0º N 0,6 m/s1,60 m/s2.2 Lux
Sat 14, 10:43 PM12,2 ºC79,0 %962 hPa0,00 l/m2 0º N 0,3 m/s1,00 m/s2.3 Lux
Sat 14, 10:53 PM11,9 ºC80,6 %962 hPa0,00 l/m2 0º N 0,0 m/s0,10 m/s2.3 Lux
Sat 14, 11:03 PM11,0 ºC85,8 %963 hPa0,00 l/m2 0º N 0,0 m/s0,10 m/s2.3 Lux
Sat 14, 11:13 PM10,8 ºC87,0 %963 hPa0,00 l/m2 0º N 0,0 m/s0,00 m/s2.3 Lux
Sat 14, 11:23 PM10,7 ºC87,6 %963 hPa0,00 l/m2 0º N 0,0 m/s0,00 m/s2.3 Lux
Sat 14, 11:33 PM10,7 ºC86,7 %963 hPa0,00 l/m2 0º N 0,0 m/s0,00 m/s2.2 Lux
Sat 14, 11:43 PM10,7 ºC86,8 %963 hPa0,00 l/m2 0º N 0,0 m/s0,10 m/s2.3 Lux
Sat 14, 11:53 PM11,2 ºC85,0 %963 hPa0,00 l/m2 0º N 0,0 m/s0,00 m/s2.2 Lux
Sun 15, 12:03 AM11,4 ºC84,3 %963 hPa0,00 l/m2 0º N 0,0 m/s0,00 m/s2.2 Lux
Sun 15, 12:13 AM11,5 ºC84,0 %963 hPa0,00 l/m2 0º N 0,1 m/s0,70 m/s2.2 Lux
Sun 15, 12:23 AM11,6 ºC83,5 %963 hPa0,00 l/m2 0º N 0,0 m/s0,00 m/s2.2 Lux
Sun 15, 12:33 AM11,4 ºC84,4 %963 hPa0,00 l/m2 0º N 0,0 m/s0,00 m/s2.3 Lux
Sun 15, 12:42 AM11,0 ºC86,4 %963 hPa0,00 l/m2 0º N 0,0 m/s0,30 m/s2.3 Lux
Sun 15, 12:52 AM10,9 ºC87,0 %963 hPa0,00 l/m2 0º N 0,0 m/s0,30 m/s2.2 Lux
Sun 15, 01:02 AM10,9 ºC86,0 %963 hPa0,00 l/m2 0º N 0,0 m/s0,00 m/s2.3 Lux
Sun 15, 01:12 AM11,1 ºC85,0 %963 hPa0,00 l/m2 0º N 0,0 m/s0,00 m/s2.3 Lux
Sun 15, 01:22 AM11,3 ºC83,9 %963 hPa0,00 l/m2 0º N 0,0 m/s0,00 m/s2.2 Lux
Sun 15, 01:32 AM11,1 ºC84,4 %963 hPa0,00 l/m2 0º N 0,0 m/s0,00 m/s2.3 Lux
Sun 15, 01:42 AM10,8 ºC85,2 %963 hPa0,00 l/m2 0º N 0,0 m/s0,00 m/s2.3 Lux
Sun 15, 01:52 AM10,5 ºC87,4 %963 hPa0,00 l/m2 0º N 0,0 m/s0,00 m/s2.3 Lux
Sun 15, 02:02 AM10,0 ºC88,2 %963 hPa0,00 l/m2 0º N 0,0 m/s0,00 m/s2.2 Lux
Sun 15, 02:12 AM9,7 ºC90,1 %963 hPa0,00 l/m2 0º N 0,0 m/s0,00 m/s2.3 Lux
Sun 15, 02:22 AM10,1 ºC88,8 %963 hPa0,00 l/m2 0º N 0,0 m/s0,00 m/s2.3 Lux
Sun 15, 02:32 AM9,6 ºC90,4 %963 hPa0,00 l/m2 0º N 0,0 m/s0,00 m/s2.3 Lux
Sun 15, 02:42 AM9,4 ºC92,2 %963 hPa0,00 l/m2 0º N 0,0 m/s0,00 m/s2.3 Lux
Sun 15, 02:52 AM9,7 ºC89,8 %963 hPa0,00 l/m2 0º N 0,0 m/s0,00 m/s2.3 Lux
Sun 15, 03:02 AM9,4 ºC90,8 %963 hPa0,00 l/m2 0º N 0,0 m/s0,00 m/s2.3 Lux
Sun 15, 03:12 AM10,1 ºC87,0 %963 hPa0,00 l/m2 0º N 0,0 m/s0,00 m/s2.3 Lux
Sun 15, 03:22 AM10,3 ºC87,5 %963 hPa0,00 l/m2 0º N 0,0 m/s0,00 m/s2.3 Lux
Sun 15, 03:32 AM10,5 ºC86,0 %963 hPa0,00 l/m2 0º N 0,0 m/s0,00 m/s2.2 Lux
Sun 15, 03:42 AM10,6 ºC85,1 %963 hPa0,00 l/m2 0º N 0,0 m/s0,00 m/s2.3 Lux
Sun 15, 03:52 AM10,7 ºC85,0 %963 hPa0,00 l/m2 0º N 0,0 m/s0,00 m/s2.3 Lux
Sun 15, 04:02 AM10,7 ºC84,8 %963 hPa0,00 l/m2 0º N 0,0 m/s0,00 m/s2.3 Lux
Sun 15, 04:12 AM10,6 ºC86,1 %963 hPa0,00 l/m2 0º N 0,0 m/s0,00 m/s2.3 Lux
Sun 15, 04:22 AM10,2 ºC87,8 %963 hPa0,00 l/m2 0º N 0,0 m/s0,00 m/s2.2 Lux
Sun 15, 04:32 AM10,1 ºC87,9 %963 hPa0,00 l/m2 0º N 0,0 m/s0,00 m/s2.3 Lux
Sun 15, 04:42 AM10,6 ºC88,3 %963 hPa0,00 l/m2 0º N 0,0 m/s0,00 m/s2.3 Lux
Sun 15, 04:52 AM10,4 ºC89,2 %963 hPa0,00 l/m2 0º N 0,0 m/s0,00 m/s2.2 Lux
Sun 15, 05:02 AM10,2 ºC89,3 %963 hPa0,00 l/m2 0º N 0,0 m/s0,00 m/s2.3 Lux
Sun 15, 05:12 AM10,1 ºC89,6 %963 hPa0,00 l/m2 0º N 0,0 m/s0,00 m/s2.3 Lux
Sun 15, 05:22 AM9,9 ºC89,5 %963 hPa0,00 l/m2 0º N 0,0 m/s0,00 m/s2.3 Lux
Sun 15, 05:32 AM9,5 ºC91,9 %963 hPa0,00 l/m2 0º N 0,0 m/s0,00 m/s2.3 Lux
Sun 15, 05:42 AM9,1 ºC93,7 %963 hPa0,00 l/m2 0º N 0,0 m/s0,00 m/s2.3 Lux
Sun 15, 05:52 AM9,1 ºC94,1 %963 hPa0,00 l/m2 0º N 0,0 m/s0,00 m/s2.3 Lux
Sun 15, 06:02 AM9,3 ºC93,6 %963 hPa0,00 l/m2 0º N 0,0 m/s0,00 m/s2.2 Lux
Sun 15, 06:12 AM9,5 ºC92,9 %963 hPa0,00 l/m2 0º N 0,0 m/s0,00 m/s2.3 Lux
Sun 15, 06:22 AM9,4 ºC92,4 %963 hPa0,00 l/m2 0º N 0,0 m/s0,00 m/s2.3 Lux
Sun 15, 06:32 AM9,0 ºC92,9 %963 hPa0,00 l/m2 0º N 0,0 m/s0,00 m/s2.3 Lux
Sun 15, 06:42 AM8,7 ºC94,2 %962 hPa0,00 l/m2 0º N 0,0 m/s0,00 m/s2.2 Lux
Sun 15, 06:52 AM8,6 ºC95,2 %963 hPa0,00 l/m2 0º N 0,0 m/s0,00 m/s2.3 Lux
Sun 15, 07:02 AM9,0 ºC95,7 %962 hPa0,00 l/m2 0º N 0,0 m/s0,00 m/s2.3 Lux
Sun 15, 07:12 AM9,1 ºC94,1 %962 hPa0,00 l/m2 0º N 0,0 m/s0,00 m/s2.2 Lux
Sun 15, 07:22 AM9,0 ºC92,8 %962 hPa0,00 l/m2 0º N 0,0 m/s0,10 m/s2.4 Lux
Sun 15, 07:32 AM8,8 ºC94,2 %962 hPa0,00 l/m2 0º N 0,0 m/s0,00 m/s4.3 Lux
Sun 15, 07:42 AM8,5 ºC93,8 %963 hPa0,00 l/m2 0º N 0,0 m/s0,00 m/s14 Lux
Sun 15, 07:52 AM8,3 ºC95,2 %963 hPa0,00 l/m2 0º N 0,0 m/s0,00 m/s38.8 Lux
Sun 15, 08:02 AM8,4 ºC95,7 %962 hPa0,00 l/m2 0º N 0,0 m/s0,00 m/s73 Lux
Sun 15, 08:12 AM8,4 ºC95,5 %963 hPa0,00 l/m2 0º N 0,0 m/s0,00 m/s137.3 Lux
Sun 15, 08:22 AM8,5 ºC95,1 %963 hPa0,00 l/m2 0º N 0,0 m/s0,00 m/s235.2 Lux
Sun 15, 08:32 AM8,7 ºC93,7 %963 hPa0,00 l/m2 0º N 0,0 m/s0,00 m/s283.4 Lux
Sun 15, 08:42 AM8,7 ºC94,0 %963 hPa0,00 l/m2 0º N 0,0 m/s0,00 m/s405.2 Lux
Sun 15, 08:52 AM9,1 ºC92,7 %963 hPa0,00 l/m2 0º N 0,0 m/s0,00 m/s444.7 Lux
Sun 15, 09:02 AM9,6 ºC90,5 %963 hPa0,00 l/m2 0º N 0,0 m/s0,00 m/s478.2 Lux
Sun 15, 09:12 AM9,9 ºC89,6 %963 hPa0,00 l/m2 0º N 0,0 m/s0,10 m/s587.4 Lux
Sun 15, 09:22 AM10,2 ºC88,5 %963 hPa0,00 l/m2 0º N 0,0 m/s0,10 m/s832.8 Lux
Sun 15, 09:32 AM10,5 ºC86,5 %963 hPa0,00 l/m2 0º N 0,0 m/s0,00 m/s2094.2 Lux
Sun 15, 09:42 AM12,9 ºC78,0 %963 hPa0,00 l/m2 0º N 0,0 m/s0,00 m/s2692.9 Lux
Sun 15, 09:52 AM14,7 ºC67,3 %963 hPa0,00 l/m2 0º N 0,0 m/s0,10 m/s1908 Lux
Sun 15, 10:02 AM15,5 ºC63,2 %963 hPa0,00 l/m2 0º N 0,8 m/s1,80 m/s4616.8 Lux
Sun 15, 10:12 AM14,4 ºC68,4 %963 hPa0,00 l/m2 0º N 0,2 m/s0,60 m/s2692.9 Lux
Sun 15, 10:22 AM16,6 ºC59,9 %963 hPa0,00 l/m2 0º N 0,7 m/s2,70 m/s2094.2 Lux
Sun 15, 10:32 AM13,7 ºC70,4 %963 hPa0,00 l/m2 0º N 0,5 m/s1,40 m/s6665.8 Lux
Sun 15, 10:42 AM14,2 ºC70,5 %963 hPa0,00 l/m2 0º N 0,2 m/s0,60 m/s8587.7 Lux
Sun 15, 10:52 AM16,8 ºC59,9 %963 hPa0,00 l/m2 0º N 0,1 m/s0,50 m/s3368.1 Lux
Sun 15, 11:01 AM18,5 ºC53,8 %963 hPa0,00 l/m2 0º N 0,4 m/s1,50 m/s7866.8 Lux
Sun 15, 11:11 AM17,4 ºC57,3 %963 hPa0,00 l/m2 0º N 0,1 m/s0,30 m/s10347.3 Lux
Sun 15, 11:21 AM19,7 ºC50,7 %963 hPa0,00 l/m2 0º N 0,4 m/s1,10 m/s2841.9 Lux
Sun 15, 11:31 AM18,0 ºC55,6 %963 hPa0,00 l/m2 0º N 0,2 m/s1,40 m/s9408.2 Lux
Sun 15, 11:41 AM18,7 ºC54,2 %963 hPa0,00 l/m2 0º N 0,1 m/s0,80 m/s8587.7 Lux
Sun 15, 11:51 AM20,3 ºC49,0 %963 hPa0,00 l/m2 0º N 0,4 m/s1,10 m/s10347.3 Lux
Sun 15, 12:01 PM21,6 ºC45,4 %963 hPa0,00 l/m2 0º N 0,4 m/s0,80 m/s3800.8 Lux
Sun 15, 12:11 PM21,1 ºC46,7 %963 hPa0,00 l/m2 0º N 1,0 m/s2,90 m/s10347.3 Lux
Sun 15, 12:21 PM19,4 ºC51,8 %963 hPa0,00 l/m2 0º N 0,5 m/s1,20 m/s7230.4 Lux
Sun 15, 12:31 PM22,2 ºC45,0 %963 hPa0,00 l/m2 0º N 0,6 m/s1,20 m/s3800.8 Lux
Sun 15, 12:41 PM19,9 ºC49,3 %963 hPa0,00 l/m2 0º N 0,6 m/s2,80 m/s3575 Lux
Sun 15, 12:51 PM19,7 ºC50,9 %963 hPa0,00 l/m2 0º N 0,2 m/s0,40 m/s5309.4 Lux
Sun 15, 01:01 PM22,2 ºC43,9 %963 hPa0,00 l/m2 0º N 0,6 m/s1,20 m/s15860.1 Lux
Sun 15, 01:11 PM17,5 ºC59,5 %963 hPa0,00 l/m2 0º N 1,1 m/s2,40 m/s2197.4 Lux
Sun 15, 01:21 PM17,0 ºC58,8 %963 hPa0,00 l/m2 0º N 1,7 m/s2,60 m/s5713.1 Lux
Sun 15, 01:31 PM20,7 ºC45,3 %963 hPa0,00 l/m2 0º N 1,6 m/s2,70 m/s7866.8 Lux
Sun 15, 01:41 PM19,9 ºC49,0 %963 hPa0,00 l/m2 0º N 0,7 m/s1,80 m/s3575 Lux
Sun 15, 01:51 PM18,4 ºC55,2 %963 hPa0,00 l/m2 0º N 0,3 m/s1,10 m/s17897.6 Lux
Sun 15, 02:01 PM19,3 ºC51,2 %963 hPa0,00 l/m2 0º N 1,4 m/s3,10 m/s3368.1 Lux
Sun 15, 02:11 PM18,4 ºC55,5 %963 hPa0,00 l/m2 0º N 0,5 m/s1,00 m/s3800.8 Lux
Sun 15, 02:21 PM18,0 ºC56,3 %963 hPa0,00 l/m2 0º N 0,6 m/s1,00 m/s4945.6 Lux
Sun 15, 02:31 PM19,8 ºC50,3 %963 hPa0,00 l/m2 0º N 0,7 m/s2,10 m/s4047.8 Lux
Sun 15, 02:41 PM18,8 ºC54,6 %963 hPa0,00 l/m2 0º N 1,3 m/s2,70 m/s15860.1 Lux
Sun 15, 02:51 PM23,5 ºC38,5 %962 hPa0,00 l/m2 0º N 1,2 m/s2,20 m/s17897.6 Lux
Sun 15, 03:01 PM22,4 ºC43,5 %962 hPa0,00 l/m2 0º N 1,9 m/s3,50 m/s12680.7 Lux
Sun 15, 03:11 PM23,4 ºC38,7 %962 hPa0,00 l/m2 0º N 1,2 m/s2,50 m/s3368.1 Lux
Sun 15, 03:21 PM20,8 ºC45,7 %962 hPa0,00 l/m2 0º N 1,1 m/s1,50 m/s14141.9 Lux
Sun 15, 03:31 PM23,6 ºC40,8 %962 hPa0,00 l/m2 0º N 1,9 m/s3,70 m/s14141.9 Lux
Sun 15, 03:41 PM23,5 ºC39,8 %962 hPa0,00 l/m2 0º N 1,4 m/s2,30 m/s14141.9 Lux
Sun 15, 03:51 PM24,6 ºC37,5 %962 hPa0,00 l/m2 0º N 1,7 m/s3,50 m/s10347.3 Lux
Sun 15, 04:01 PM25,3 ºC36,2 %962 hPa0,00 l/m2 0º N 1,9 m/s3,10 m/s9408.2 Lux
Sun 15, 04:11 PM21,5 ºC44,7 %962 hPa0,00 l/m2 0º N 1,6 m/s2,60 m/s5309.4 Lux
Sun 15, 04:21 PM20,6 ºC46,1 %962 hPa0,00 l/m2 0º N 0,8 m/s1,80 m/s11428.3 Lux
Sun 15, 04:31 PM21,7 ºC43,8 %962 hPa0,00 l/m2 0º N 1,2 m/s2,30 m/s6665.8 Lux
Sun 15, 04:41 PM22,4 ºC42,3 %962 hPa0,00 l/m2 0º N 1,7 m/s2,90 m/s4318.8 Lux
Sun 15, 04:51 PM20,9 ºC48,8 %962 hPa0,00 l/m2 0º N 0,8 m/s2,20 m/s15860.1 Lux
Sun 15, 05:01 PM21,0 ºC48,6 %961 hPa0,00 l/m2 0º N 0,7 m/s1,40 m/s3575 Lux
Sun 15, 05:11 PM20,5 ºC52,1 %961 hPa0,00 l/m2 0º N 1,2 m/s2,60 m/s2841.9 Lux
Sun 15, 05:21 PM19,0 ºC57,1 %961 hPa0,00 l/m2 0º N 1,0 m/s1,80 m/s5713.1 Lux
Sun 15, 05:31 PM20,1 ºC54,1 %961 hPa0,00 l/m2 0º N 0,8 m/s1,60 m/s1823.7 Lux
Sun 15, 05:41 PM18,8 ºC57,6 %961 hPa0,00 l/m2 0º N 0,3 m/s0,60 m/s1308.8 Lux
Sun 15, 05:51 PM18,1 ºC61,8 %961 hPa0,00 l/m2 0º N 1,2 m/s2,70 m/s1601 Lux
Sun 15, 06:01 PM17,8 ºC63,9 %961 hPa0,00 l/m2 0º N 1,6 m/s2,80 m/s1998 Lux
Sun 15, 06:11 PM18,0 ºC65,3 %961 hPa0,00 l/m2 0º N 0,8 m/s2,10 m/s1473.8 Lux
Sun 15, 06:21 PM17,9 ºC64,5 %961 hPa0,00 l/m2 0º N 1,1 m/s2,20 m/s1050.3 Lux
Sun 15, 06:31 PM17,1 ºC68,1 %961 hPa0,00 l/m2 0º N 0,6 m/s1,40 m/s556.9 Lux
Sun 15, 06:41 PM16,9 ºC69,0 %961 hPa0,00 l/m2 0º N 0,7 m/s1,50 m/s466.6 Lux
Sun 15, 06:51 PM16,5 ºC69,7 %961 hPa0,00 l/m2 0º N 0,6 m/s1,40 m/s571.9 Lux
Sun 15, 07:01 PM16,7 ºC69,3 %961 hPa0,00 l/m2 0º N 0,3 m/s0,70 m/s300.6 Lux
Sun 15, 07:11 PM16,6 ºC69,2 %961 hPa0,00 l/m2 0º N 0,1 m/s0,30 m/s182.5 Lux
Sun 15, 07:21 PM16,3 ºC70,1 %961 hPa0,00 l/m2 0º N 1,2 m/s2,70 m/s227 Lux
Sun 15, 07:31 PM16,0 ºC71,7 %961 hPa0,00 l/m2 0º N 1,0 m/s1,90 m/s235.2 Lux
Sun 15, 07:41 PM15,9 ºC72,0 %961 hPa0,00 l/m2 0º N 1,3 m/s2,00 m/s272.7 Lux
Sun 15, 07:51 PM15,8 ºC72,7 %961 hPa0,00 l/m2 0º N 0,6 m/s1,80 m/s141.3 Lux
Sun 15, 08:01 PM15,9 ºC72,9 %961 hPa0,00 l/m2 0º N 1,0 m/s1,70 m/s88 Lux
Sun 15, 08:11 PM15,6 ºC74,8 %962 hPa0,00 l/m2 0º N 0,3 m/s0,90 m/s79.6 Lux
Sun 15, 08:21 PM15,6 ºC74,7 %962 hPa0,00 l/m2 0º N 0,2 m/s0,90 m/s29 Lux
Sun 15, 08:31 PM15,5 ºC75,9 %962 hPa0,00 l/m2 0º N 0,2 m/s0,90 m/s14.9 Lux
Sun 15, 08:41 PM15,3 ºC76,8 %962 hPa0,00 l/m2 0º N 0,3 m/s0,50 m/s13.4 Lux
Sun 15, 08:51 PM15,2 ºC78,3 %962 hPa0,00 l/m2 0º N 0,5 m/s1,10 m/s7.3 Lux
Sun 15, 09:01 PM15,0 ºC79,5 %962 hPa0,00 l/m2 0º N 0,1 m/s0,50 m/s3.6 Lux
Sun 15, 09:11 PM15,0 ºC79,8 %962 hPa0,00 l/m2 0º N 0,1 m/s0,80 m/s2.4 Lux
Sun 15, 09:20 PM14,8 ºC81,8 %962 hPa0,00 l/m2 0º N 0,5 m/s1,30 m/s2.2 Lux
Sun 15, 09:30 PM14,5 ºC81,7 %962 hPa0,00 l/m2 0º N 1,5 m/s2,10 m/s2.2 Lux
Sun 15, 09:40 PM14,4 ºC81,0 %962 hPa0,00 l/m2 0º N 1,1 m/s1,70 m/s2.3 Lux
Sun 15, 09:50 PM14,4 ºC81,3 %962 hPa0,00 l/m2 0º N 0,8 m/s1,60 m/s2.3 Lux
Sun 15, 10:00 PM14,2 ºC82,5 %962 hPa0,00 l/m2 0º N 0,1 m/s0,60 m/s2.3 Lux
Sun 15, 10:10 PM14,2 ºC83,5 %962 hPa0,00 l/m2 0º N 0,8 m/s1,40 m/s2.3 Lux
Sun 15, 10:20 PM14,2 ºC82,9 %962 hPa0,00 l/m2 0º N 0,5 m/s1,40 m/s2.3 Lux
Sun 15, 10:30 PM14,2 ºC83,5 %962 hPa0,00 l/m2 0º N 0,0 m/s0,10 m/s2.3 Lux
Sun 15, 10:40 PM14,2 ºC82,8 %962 hPa0,00 l/m2 0º N 0,2 m/s0,80 m/s2.2 Lux
Sun 15, 10:50 PM14,1 ºC82,7 %962 hPa0,00 l/m2 0º N 0,2 m/s0,90 m/s2.3 Lux
Sun 15, 11:00 PM14,1 ºC83,4 %962 hPa0,00 l/m2 0º N 0,0 m/s0,40 m/s2.2 Lux
Sun 15, 11:10 PM14,1 ºC83,2 %962 hPa0,00 l/m2 0º N 0,0 m/s0,10 m/s2.3 Lux
Sun 15, 11:20 PM14,0 ºC83,4 %962 hPa0,00 l/m2 0º N 0,0 m/s0,00 m/s2.2 Lux
Sun 15, 11:30 PM14,0 ºC84,3 %962 hPa0,00 l/m2 0º N 0,0 m/s0,00 m/s2.2 Lux
Sun 15, 11:40 PM13,9 ºC84,7 %962 hPa0,00 l/m2 0º N 0,1 m/s0,30 m/s2.3 Lux
Sun 15, 11:50 PM14,0 ºC83,3 %962 hPa0,00 l/m2 0º N 0,1 m/s0,50 m/s2.3 Lux
Mon 16, 12:00 AM14,1 ºC82,5 %962 hPa0,00 l/m2 0º N 0,0 m/s0,00 m/s2.2 Lux
Mon 16, 12:10 AM14,0 ºC83,6 %962 hPa0,00 l/m2 0º N 0,0 m/s0,00 m/s2.3 Lux
Mon 16, 12:20 AM14,0 ºC84,0 %962 hPa0,00 l/m2 0º N 0,0 m/s0,00 m/s2.3 Lux
Mon 16, 12:30 AM14,0 ºC83,2 %961 hPa0,00 l/m2 0º N 0,3 m/s1,00 m/s2.2 Lux
Mon 16, 12:40 AM14,2 ºC80,8 %961 hPa0,00 l/m2 0º N 0,1 m/s0,30 m/s2.3 Lux
Mon 16, 12:50 AM14,2 ºC81,0 %961 hPa0,00 l/m2 0º N 0,0 m/s0,00 m/s2.3 Lux
Mon 16, 01:00 AM14,1 ºC81,8 %961 hPa0,00 l/m2 0º N 0,0 m/s0,20 m/s2.2 Lux
Mon 16, 01:10 AM14,2 ºC82,0 %961 hPa0,00 l/m2 0º N 0,0 m/s0,10 m/s2.3 Lux
Mon 16, 01:20 AM14,1 ºC84,2 %961 hPa0,00 l/m2 0º N 0,0 m/s0,10 m/s2.3 Lux
Mon 16, 01:30 AM14,1 ºC86,3 %961 hPa0,00 l/m2 0º N 0,0 m/s0,10 m/s2.2 Lux
Mon 16, 01:40 AM13,8 ºC86,9 %961 hPa0,00 l/m2 0º N 0,0 m/s0,00 m/s2.2 Lux
Mon 16, 01:50 AM13,7 ºC87,3 %961 hPa0,00 l/m2 0º N 0,0 m/s0,00 m/s2.2 Lux
Mon 16, 02:00 AM13,4 ºC88,9 %961 hPa0,00 l/m2 0º N 0,0 m/s0,00 m/s2.2 Lux
Mon 16, 02:10 AM13,3 ºC90,1 %961 hPa0,00 l/m2 0º N 0,0 m/s0,00 m/s2.2 Lux
Mon 16, 02:20 AM13,0 ºC91,7 %961 hPa0,00 l/m2 0º N 0,0 m/s0,00 m/s2.2 Lux
Mon 16, 02:30 AM12,9 ºC92,1 %961 hPa0,00 l/m2 0º N 0,5 m/s2,00 m/s2.3 Lux
Mon 16, 02:40 AM13,0 ºC94,3 %961 hPa0,00 l/m2 0º N 0,3 m/s0,80 m/s2.3 Lux
Mon 16, 02:50 AM12,9 ºC93,4 %961 hPa0,00 l/m2 0º N 0,2 m/s0,80 m/s2.2 Lux
Mon 16, 03:00 AM12,8 ºC93,7 %961 hPa0,00 l/m2 0º N 0,0 m/s0,00 m/s2.3 Lux
Mon 16, 03:10 AM12,9 ºC94,9 %961 hPa0,00 l/m2 0º N 0,3 m/s0,90 m/s2.2 Lux
Mon 16, 03:20 AM12,8 ºC94,8 %961 hPa0,00 l/m2 0º N 0,3 m/s1,00 m/s2.3 Lux
Mon 16, 03:30 AM12,7 ºC95,8 %961 hPa0,00 l/m2 0º N 1,7 m/s3,50 m/s2.2 Lux
Mon 16, 03:40 AM12,5 ºC96,4 %961 hPa0,00 l/m2 0º N 4,2 m/s4,40 m/s2.3 Lux
Mon 16, 03:50 AM12,1 ºC97,4 %961 hPa0,08 l/m2 0º N 3,8 m/s4,70 m/s2.2 Lux
Mon 16, 04:00 AM11,8 ºC98,1 %961 hPa0,00 l/m2 0º N 3,9 m/s4,90 m/s2.3 Lux
Mon 16, 04:10 AM10,5 ºC98,8 %961 hPa0,00 l/m2 0º N 3,6 m/s4,60 m/s2.3 Lux
Mon 16, 04:20 AM10,1 ºC99,8 %961 hPa0,00 l/m2 0º N 3,3 m/s4,40 m/s2.3 Lux
Mon 16, 04:30 AM10,1 ºC99,8 %962 hPa0,00 l/m2 0º N 2,9 m/s3,80 m/s2.3 Lux
Mon 16, 04:40 AM10,2 ºC98,3 %962 hPa0,00 l/m2 0º N 1,4 m/s2,30 m/s2.2 Lux
Mon 16, 04:50 AM10,3 ºC97,1 %961 hPa0,00 l/m2 0º N 0,8 m/s2,00 m/s2.2 Lux
Mon 16, 05:00 AM10,3 ºC95,7 %961 hPa0,00 l/m2 0º N 0,3 m/s0,90 m/s2.2 Lux
Mon 16, 05:10 AM10,3 ºC96,6 %961 hPa0,08 l/m2 0º N 0,8 m/s2,10 m/s2.3 Lux
Mon 16, 05:20 AM10,2 ºC96,0 %961 hPa0,00 l/m2 0º N 1,4 m/s1,70 m/s2.3 Lux
Mon 16, 05:30 AM10,2 ºC96,3 %962 hPa0,00 l/m2 0º N 1,2 m/s2,30 m/s2.3 Lux
Mon 16, 05:40 AM10,0 ºC97,1 %961 hPa0,00 l/m2 0º N 1,3 m/s1,70 m/s2.2 Lux
Mon 16, 05:50 AM10,0 ºC97,7 %961 hPa0,00 l/m2 0º N 0,9 m/s2,20 m/s2.2 Lux
Mon 16, 06:00 AM10,0 ºC97,9 %962 hPa0,00 l/m2 0º N 0,4 m/s0,90 m/s2.3 Lux
Mon 16, 06:10 AM9,9 ºC96,9 %962 hPa0,00 l/m2 0º N 0,9 m/s1,30 m/s2.2 Lux
Mon 16, 06:20 AM10,0 ºC96,7 %962 hPa0,00 l/m2 0º N 1,3 m/s2,10 m/s2.3 Lux
Mon 16, 06:30 AM10,0 ºC97,6 %961 hPa0,00 l/m2 0º N 1,8 m/s2,40 m/s2.3 Lux
Mon 16, 06:40 AM9,9 ºC98,4 %961 hPa0,00 l/m2 0º N 1,4 m/s2,10 m/s2.2 Lux
Mon 16, 06:50 AM9,5 ºC99,0 %962 hPa0,00 l/m2 0º N 0,7 m/s1,40 m/s2.3 Lux
Mon 16, 07:00 AM9,2 ºC99,5 %962 hPa0,00 l/m2 0º N 0,8 m/s1,70 m/s2.2 Lux
Mon 16, 07:20 AM9,4 ºC99,1 %962 hPa0,00 l/m2 0º N 0,2 m/s0,80 m/s2.3 Lux
Mon 16, 07:30 AM9,4 ºC98,2 %962 hPa0,00 l/m2 0º N 0,0 m/s0,00 m/s3.4 Lux
Mon 16, 07:39 AM9,2 ºC98,1 %962 hPa0,00 l/m2 0º N 0,0 m/s0,00 m/s10.8 Lux
Mon 16, 07:49 AM8,8 ºC98,6 %962 hPa0,08 l/m2 0º N 0,2 m/s1,10 m/s26.7 Lux
Mon 16, 07:59 AM8,6 ºC98,8 %962 hPa0,00 l/m2 0º N 0,6 m/s1,40 m/s83.2 Lux
Mon 16, 08:09 AM8,8 ºC99,3 %962 hPa0,00 l/m2 0º N 1,0 m/s1,30 m/s96.7 Lux
Mon 16, 08:19 AM9,0 ºC98,8 %962 hPa0,00 l/m2 0º N 0,3 m/s0,80 m/s94.4 Lux
Mon 16, 08:29 AM9,1 ºC98,4 %962 hPa0,00 l/m2 0º N 0,0 m/s0,00 m/s158.8 Lux
Mon 16, 08:39 AM9,3 ºC97,7 %962 hPa0,00 l/m2 0º N 0,2 m/s0,90 m/s378.8 Lux
Mon 16, 08:49 AM9,3 ºC97,1 %962 hPa0,00 l/m2 0º N 0,0 m/s0,00 m/s478.2 Lux
Mon 16, 08:59 AM9,0 ºC97,8 %963 hPa0,00 l/m2 0º N 0,0 m/s0,00 m/s782.6 Lux
Mon 16, 09:09 AM9,3 ºC97,8 %963 hPa0,00 l/m2 0º N 0,0 m/s0,00 m/s917.2 Lux
Mon 16, 09:19 AM10,1 ºC93,6 %963 hPa0,00 l/m2 0º N 0,0 m/s0,20 m/s715.3 Lux
Mon 16, 09:29 AM10,0 ºC93,7 %963 hPa0,00 l/m2 0º N 0,7 m/s1,20 m/s917.2 Lux
Mon 16, 09:39 AM10,2 ºC92,5 %963 hPa0,00 l/m2 0º N 0,8 m/s1,70 m/s587.4 Lux
Mon 16, 09:49 AM10,1 ºC92,7 %963 hPa0,00 l/m2 202,5º SSO 0,4 m/s1,20 m/s859.6 Lux
Mon 16, 09:59 AM11,0 ºC84,7 %963 hPa0,00 l/m2 202,5º SSO 0,3 m/s1,00 m/s1415.6 Lux
Mon 16, 10:10 AM10,5 ºC87,5 %963 hPa0,00 l/m2 202,5º SSO 0,0 m/s0,00 m/s354.8 Lux
Mon 16, 10:20 AM10,3 ºC87,6 %963 hPa0,00 l/m2 0º N 0,0 m/s0,00 m/s1259.7 Lux
Mon 16, 10:30 AM10,2 ºC86,7 %963 hPa0,00 l/m2 0º N 0,0 m/s0,00 m/s6162.9 Lux
Mon 16, 10:40 AM12,3 ºC74,7 %963 hPa0,00 l/m2 0º N 0,0 m/s0,00 m/s5309.4 Lux
Mon 16, 10:50 AM13,2 ºC70,5 %963 hPa0,00 l/m2 0º N 0,0 m/s0,00 m/s2308 Lux
Mon 16, 11:00 AM12,0 ºC73,1 %964 hPa0,00 l/m2 0º N 0,0 m/s0,00 m/s8587.7 Lux
Mon 16, 11:10 AM14,3 ºC63,2 %963 hPa0,00 l/m2 0º N 0,0 m/s0,00 m/s5713.1 Lux
Mon 16, 11:20 AM14,8 ºC61,8 %963 hPa0,00 l/m2 0º N 0,0 m/s0,00 m/s4616.8 Lux
Mon 16, 11:30 AM13,3 ºC69,0 %963 hPa0,00 l/m2 0º N 0,0 m/s0,00 m/s8587.7 Lux
Mon 16, 11:40 AM16,4 ºC57,3 %963 hPa0,00 l/m2 202,5º SSO 0,0 m/s0,00 m/s1823.7 Lux
Mon 16, 11:50 AM14,1 ºC64,9 %964 hPa0,00 l/m2 0º N 0,0 m/s0,00 m/s4945.6 Lux
Mon 16, 12:00 PM14,8 ºC62,6 %963 hPa0,00 l/m2 0º N 0,0 m/s0,00 m/s2692.9 Lux
Mon 16, 12:10 PM14,9 ºC61,7 %964 hPa0,00 l/m2 0º N 0,0 m/s0,00 m/s2841.9 Lux
Mon 16, 12:20 PM14,1 ºC65,0 %964 hPa0,00 l/m2 0º N 0,0 m/s0,10 m/s11428.3 Lux
Mon 16, 12:30 PM17,1 ºC53,8 %964 hPa0,00 l/m2 0º N 0,0 m/s0,00 m/s7866.8 Lux
Mon 16, 12:40 PM17,1 ºC52,0 %964 hPa0,00 l/m2 0º N 0,0 m/s0,00 m/s8587.7 Lux
Mon 16, 12:50 PM16,9 ºC52,1 %964 hPa0,00 l/m2 0º N 0,0 m/s0,00 m/s9408.2 Lux
Mon 16, 01:00 PM18,0 ºC48,7 %963 hPa0,00 l/m2 0º N 0,0 m/s0,10 m/s12680.7 Lux
Mon 16, 01:10 PM20,6 ºC40,7 %963 hPa0,00 l/m2 0º N 0,0 m/s0,00 m/s6665.8 Lux
Mon 16, 01:20 PM18,3 ºC46,5 %963 hPa0,00 l/m2 0º N 0,0 m/s0,00 m/s3003.2 Lux
Mon 16, 01:30 PM20,2 ºC42,5 %963 hPa0,00 l/m2 202,5º SSO 0,0 m/s0,00 m/s11428.3 Lux
Mon 16, 01:40 PM17,7 ºC48,8 %963 hPa0,00 l/m2 0º N 0,0 m/s0,00 m/s8587.7 Lux
Mon 16, 01:50 PM22,5 ºC37,6 %963 hPa0,00 l/m2 0º N 0,0 m/s0,00 m/s12680.7 Lux
Mon 16, 02:00 PM19,9 ºC41,3 %963 hPa0,00 l/m2 0º N 0,0 m/s0,00 m/s12680.7 Lux
Mon 16, 02:10 PM18,0 ºC48,2 %963 hPa0,00 l/m2 0º N 0,0 m/s0,20 m/s11428.3 Lux
Mon 16, 02:20 PM20,3 ºC39,2 %963 hPa0,00 l/m2 202,5º SSO 0,2 m/s1,70 m/s3368.1 Lux
Mon 16, 02:30 PM19,8 ºC40,1 %963 hPa0,00 l/m2 0º N 0,0 m/s0,00 m/s10347.3 Lux
Mon 16, 02:40 PM20,8 ºC38,9 %963 hPa0,00 l/m2 0º N 0,1 m/s0,90 m/s12680.7 Lux
Mon 16, 02:50 PM20,3 ºC39,6 %963 hPa0,00 l/m2 0º N 0,1 m/s0,60 m/s11428.3 Lux
Mon 16, 03:00 PM21,2 ºC37,5 %963 hPa0,00 l/m2 202,5º SSO 0,1 m/s0,90 m/s11428.3 Lux
Mon 16, 03:10 PM21,4 ºC36,6 %963 hPa0,00 l/m2 0º N 0,0 m/s0,20 m/s11428.3 Lux
Mon 16, 03:20 PM20,2 ºC37,8 %963 hPa0,00 l/m2 0º N 0,1 m/s0,50 m/s9408.2 Lux
Mon 16, 03:30 PM20,7 ºC36,9 %962 hPa0,00 l/m2 0º N 0,0 m/s0,20 m/s11428.3 Lux
Mon 16, 03:40 PM22,7 ºC35,1 %962 hPa0,00 l/m2 0º N 0,3 m/s1,30 m/s10347.3 Lux
Mon 16, 03:50 PM21,7 ºC36,0 %962 hPa0,00 l/m2 202,5º SSO 0,0 m/s0,40 m/s2841.9 Lux
Mon 16, 04:00 PM21,6 ºC36,7 %962 hPa0,00 l/m2 0º N 0,3 m/s2,00 m/s10347.3 Lux
Mon 16, 04:10 PM21,5 ºC36,0 %962 hPa0,00 l/m2 0º N 0,1 m/s0,40 m/s11428.3 Lux
Mon 16, 04:20 PM21,5 ºC34,8 %962 hPa0,00 l/m2 0º N 0,6 m/s3,20 m/s10347.3 Lux
Mon 16, 04:30 PM20,8 ºC35,3 %962 hPa0,00 l/m2 0º N 0,7 m/s3,00 m/s10347.3 Lux
Mon 16, 04:40 PM20,8 ºC34,0 %962 hPa0,00 l/m2 0º N 0,5 m/s2,10 m/s10347.3 Lux
Mon 16, 04:50 PM22,1 ºC34,4 %962 hPa0,00 l/m2 0º N 0,0 m/s0,00 m/s10347.3 Lux
Mon 16, 05:00 PM22,1 ºC34,7 %962 hPa0,00 l/m2 0º N 0,0 m/s0,10 m/s10347.3 Lux
Mon 16, 05:10 PM20,5 ºC37,4 %962 hPa0,00 l/m2 0º N 0,0 m/s0,00 m/s9408.2 Lux
Mon 16, 05:20 PM21,0 ºC38,2 %962 hPa0,00 l/m2 0º N 0,0 m/s0,20 m/s9408.2 Lux
Mon 16, 05:30 PM21,1 ºC36,4 %962 hPa0,00 l/m2 0º N 0,3 m/s1,60 m/s4318.8 Lux
Mon 16, 05:40 PM19,4 ºC41,3 %962 hPa0,00 l/m2 0º N 0,0 m/s0,10 m/s2692.9 Lux
Mon 16, 05:50 PM18,0 ºC45,6 %962 hPa0,00 l/m2 0º N 0,0 m/s0,00 m/s7866.8 Lux
Mon 16, 06:00 PM19,5 ºC41,1 %962 hPa0,00 l/m2 0º N 0,1 m/s0,60 m/s7866.8 Lux
Mon 16, 06:20 PM20,1 ºC39,6 %962 hPa0,00 l/m2 0º N 0,1 m/s0,50 m/s7866.8 Lux
Mon 16, 06:29 PM20,3 ºC40,7 %962 hPa0,00 l/m2 0º N 0,4 m/s1,60 m/s3800.8 Lux
Mon 16, 06:39 PM19,6 ºC44,4 %962 hPa0,00 l/m2 0º N 0,2 m/s0,70 m/s5309.4 Lux
Mon 16, 06:49 PM19,6 ºC43,2 %962 hPa0,00 l/m2 0º N 0,2 m/s0,70 m/s5713.1 Lux
Mon 16, 06:59 PM19,7 ºC43,5 %962 hPa0,00 l/m2 0º N 0,2 m/s1,50 m/s5309.4 Lux
Mon 16, 07:09 PM19,8 ºC42,6 %962 hPa0,00 l/m2 0º N 0,1 m/s0,40 m/s4047.8 Lux
Mon 16, 07:19 PM18,0 ºC48,5 %963 hPa0,00 l/m2 0º N 0,1 m/s0,80 m/s3800.8 Lux
Mon 16, 07:29 PM19,3 ºC45,7 %963 hPa0,00 l/m2 0º N 0,0 m/s0,00 m/s1670.6 Lux
Mon 16, 07:39 PM17,8 ºC48,3 %963 hPa0,00 l/m2 202,5º SSO 0,0 m/s0,30 m/s2094.2 Lux
Mon 16, 07:49 PM17,7 ºC48,4 %963 hPa0,00 l/m2 0º N 0,0 m/s0,00 m/s2197.4 Lux
Mon 16, 07:59 PM17,5 ºC49,1 %963 hPa0,00 l/m2 0º N 0,0 m/s0,00 m/s1360.7 Lux
Mon 16, 08:09 PM16,9 ºC49,7 %963 hPa0,00 l/m2 0º N 0,0 m/s0,00 m/s1473.8 Lux
Mon 16, 08:19 PM16,4 ºC52,8 %963 hPa0,00 l/m2 0º N 0,0 m/s0,00 m/s782.6 Lux
Mon 16, 08:29 PM16,3 ºC51,6 %963 hPa0,00 l/m2 202,5º SSO 0,0 m/s0,00 m/s528.7 Lux
Mon 16, 08:39 PM15,5 ºC55,7 %963 hPa0,00 l/m2 0º N 0,0 m/s0,00 m/s129.9 Lux
Mon 16, 08:49 PM14,7 ºC60,5 %963 hPa0,00 l/m2 0º N 0,0 m/s0,00 m/s40.7 Lux
Mon 16, 08:59 PM14,1 ºC63,0 %963 hPa0,00 l/m2 0º N 0,0 m/s0,00 m/s11.4 Lux
Mon 16, 09:09 PM13,6 ºC65,3 %963 hPa0,00 l/m2 0º N 0,0 m/s0,00 m/s3.6 Lux
Mon 16, 09:19 PM13,3 ºC67,0 %963 hPa0,00 l/m2 0º N 0,0 m/s0,00 m/s2.5 Lux
Mon 16, 09:29 PM13,4 ºC66,9 %963 hPa0,00 l/m2 0º N 0,0 m/s0,00 m/s2.3 Lux
Mon 16, 09:39 PM13,0 ºC68,3 %963 hPa0,00 l/m2 0º N 0,0 m/s0,00 m/s2.4 Lux
Mon 16, 09:49 PM12,8 ºC69,3 %964 hPa0,00 l/m2 0º N 0,0 m/s0,00 m/s2.3 Lux
Mon 16, 09:59 PM13,3 ºC66,1 %964 hPa0,00 l/m2 0º N 0,0 m/s0,00 m/s2.3 Lux
Mon 16, 10:09 PM13,2 ºC66,6 %964 hPa0,00 l/m2 0º N 0,0 m/s0,00 m/s2.2 Lux
Mon 16, 10:19 PM12,8 ºC68,3 %964 hPa0,00 l/m2 0º N 0,0 m/s0,00 m/s2.3 Lux
Mon 16, 10:29 PM12,3 ºC70,3 %964 hPa0,00 l/m2 0º N 0,0 m/s0,00 m/s2.2 Lux
Mon 16, 10:39 PM12,3 ºC71,2 %964 hPa0,00 l/m2 202,5º SSO 0,0 m/s0,00 m/s2.2 Lux
Mon 16, 10:49 PM11,6 ºC74,4 %964 hPa0,00 l/m2 202,5º SSO 0,0 m/s0,00 m/s2.3 Lux
Mon 16, 10:59 PM11,7 ºC74,7 %964 hPa0,00 l/m2 67,5º ENE 0,0 m/s0,00 m/s2.3 Lux
Mon 16, 11:09 PM11,5 ºC76,0 %964 hPa0,00 l/m2 202,5º SSO 0,0 m/s0,00 m/s2.2 Lux
Mon 16, 11:19 PM11,6 ºC75,0 %964 hPa0,00 l/m2 0º N 0,0 m/s0,00 m/s2.2 Lux
Mon 16, 11:29 PM11,6 ºC75,4 %965 hPa0,00 l/m2 0º N 0,0 m/s0,00 m/s2.3 Lux
Mon 16, 11:39 PM11,2 ºC78,1 %965 hPa0,00 l/m2 202,5º SSO 0,0 m/s0,00 m/s2.3 Lux
Mon 16, 11:49 PM11,3 ºC77,2 %965 hPa0,00 l/m2 0º N 0,0 m/s0,00 m/s2.3 Lux
Mon 16, 11:59 PM11,3 ºC77,4 %965 hPa0,00 l/m2 67,5º ENE 0,0 m/s0,00 m/s2.2 Lux
Tue 17, 12:09 AM11,0 ºC78,6 %965 hPa0,00 l/m2 0º N 0,0 m/s0,00 m/s2.3 Lux
Tue 17, 12:19 AM11,3 ºC77,4 %965 hPa0,00 l/m2 0º N 0,0 m/s0,00 m/s2.3 Lux
Tue 17, 12:29 AM11,0 ºC77,9 %965 hPa0,00 l/m2 0º N 0,0 m/s0,00 m/s2.3 Lux
Tue 17, 12:39 AM10,6 ºC79,7 %965 hPa0,00 l/m2 0º N 0,0 m/s0,00 m/s2.2 Lux
Tue 17, 12:49 AM10,5 ºC80,6 %964 hPa0,00 l/m2 0º N 0,0 m/s0,00 m/s2.2 Lux
Tue 17, 12:59 AM10,6 ºC80,0 %965 hPa0,00 l/m2 0º N 0,0 m/s0,00 m/s2.3 Lux
Tue 17, 01:09 AM10,4 ºC80,9 %965 hPa0,00 l/m2 0º N 0,0 m/s0,00 m/s2.2 Lux
Tue 17, 01:19 AM10,4 ºC81,0 %965 hPa0,00 l/m2 0º N 0,0 m/s0,00 m/s2.3 Lux
Tue 17, 01:29 AM10,4 ºC81,0 %965 hPa0,00 l/m2 202,5º SSO 0,0 m/s0,00 m/s2.2 Lux
Tue 17, 01:39 AM10,5 ºC80,1 %965 hPa0,00 l/m2 0º N 0,0 m/s0,00 m/s2.3 Lux
Tue 17, 01:49 AM10,5 ºC80,5 %965 hPa0,00 l/m2 0º N 0,0 m/s0,00 m/s2.2 Lux
Tue 17, 01:59 AM10,4 ºC81,2 %965 hPa0,00 l/m2 0º N 0,0 m/s0,00 m/s2.2 Lux
Tue 17, 02:09 AM10,2 ºC82,2 %965 hPa0,00 l/m2 0º N 0,0 m/s0,00 m/s2.3 Lux
Tue 17, 02:19 AM10,3 ºC82,2 %965 hPa0,00 l/m2 0º N 0,0 m/s0,00 m/s2.3 Lux
Tue 17, 02:29 AM10,3 ºC82,2 %965 hPa0,00 l/m2 0º N 0,0 m/s0,00 m/s2.3 Lux
Tue 17, 02:39 AM10,5 ºC81,5 %965 hPa0,00 l/m2 0º N 0,0 m/s0,00 m/s2.3 Lux
Tue 17, 02:59 AM10,1 ºC83,9 %965 hPa0,00 l/m2 180º S 0,0 m/s0,00 m/s2.3 Lux
Tue 17, 03:09 AM10,3 ºC83,2 %965 hPa0,00 l/m2 0º N 0,0 m/s0,00 m/s2.3 Lux
Tue 17, 03:19 AM10,1 ºC84,6 %965 hPa0,00 l/m2 0º N 0,0 m/s0,00 m/s2.3 Lux
Tue 17, 03:29 AM10,4 ºC83,9 %965 hPa0,00 l/m2 0º N 0,0 m/s0,00 m/s2.3 Lux
Tue 17, 03:39 AM10,8 ºC82,3 %965 hPa0,00 l/m2 202,5º SSO 0,0 m/s0,00 m/s2.2 Lux
Tue 17, 03:49 AM10,4 ºC84,2 %965 hPa0,00 l/m2 202,5º SSO 0,0 m/s0,00 m/s2.2 Lux
Tue 17, 03:59 AM10,5 ºC83,7 %965 hPa0,00 l/m2 202,5º SSO 0,0 m/s0,00 m/s2.3 Lux
Tue 17, 04:09 AM9,4 ºC87,6 %965 hPa0,00 l/m2 0º N 0,0 m/s0,00 m/s2.3 Lux
Tue 17, 04:19 AM7,8 ºC92,3 %965 hPa0,00 l/m2 202,5º SSO 0,0 m/s0,00 m/s2.3 Lux
Tue 17, 04:29 AM7,2 ºC95,4 %965 hPa0,00 l/m2 0º N 0,0 m/s0,00 m/s2.2 Lux
Tue 17, 04:39 AM7,2 ºC96,7 %965 hPa0,00 l/m2 0º N 0,0 m/s0,00 m/s2.2 Lux
Tue 17, 04:48 AM7,7 ºC96,4 %965 hPa0,00 l/m2 0º N 0,0 m/s0,00 m/s2.2 Lux
Tue 17, 04:58 AM7,8 ºC95,8 %965 hPa0,00 l/m2 0º N 0,0 m/s0,00 m/s2.2 Lux
Tue 17, 05:08 AM8,4 ºC94,0 %965 hPa0,00 l/m2 0º N 0,0 m/s0,00 m/s2.3 Lux
Tue 17, 05:18 AM8,7 ºC93,0 %965 hPa0,00 l/m2 0º N 0,0 m/s0,00 m/s2.3 Lux
Tue 17, 05:28 AM8,7 ºC92,4 %965 hPa0,00 l/m2 0º N 0,0 m/s0,00 m/s2.3 Lux
Tue 17, 05:38 AM8,8 ºC92,5 %964 hPa0,00 l/m2 202,5º SSO 0,0 m/s0,00 m/s2.2 Lux
Tue 17, 05:48 AM8,8 ºC92,2 %964 hPa0,00 l/m2 0º N 0,0 m/s0,00 m/s2.3 Lux
Tue 17, 05:58 AM8,4 ºC93,3 %964 hPa0,00 l/m2 0º N 0,0 m/s0,00 m/s2.2 Lux
Tue 17, 06:08 AM8,1 ºC93,7 %964 hPa0,00 l/m2 0º N 0,0 m/s0,00 m/s2.3 Lux
Tue 17, 06:18 AM7,9 ºC94,0 %964 hPa0,00 l/m2 0º N 0,0 m/s0,00 m/s2.3 Lux
Tue 17, 06:28 AM7,8 ºC94,1 %964 hPa0,00 l/m2 0º N 0,0 m/s0,00 m/s2.2 Lux
Tue 17, 06:38 AM8,0 ºC93,3 %964 hPa0,00 l/m2 202,5º SSO 0,0 m/s0,00 m/s2.3 Lux
Tue 17, 06:48 AM8,3 ºC92,0 %964 hPa0,00 l/m2 0º N 0,0 m/s0,00 m/s2.2 Lux
Tue 17, 06:58 AM8,5 ºC89,6 %964 hPa0,00 l/m2 0º N 0,0 m/s0,00 m/s2.3 Lux
Tue 17, 07:08 AM8,5 ºC88,9 %964 hPa0,00 l/m2 0º N 0,0 m/s0,00 m/s2.3 Lux
Tue 17, 07:28 AM8,7 ºC87,0 %964 hPa0,00 l/m2 0º N 0,0 m/s0,00 m/s3.6 Lux
Tue 17, 07:38 AM8,4 ºC87,5 %964 hPa0,00 l/m2 0º N 0,0 m/s0,00 m/s12.8 Lux
Tue 17, 07:48 AM8,3 ºC88,0 %964 hPa0,00 l/m2 0º N 0,0 m/s0,00 m/s42 Lux
Tue 17, 07:58 AM8,2 ºC88,3 %965 hPa0,00 l/m2 0º N 0,0 m/s0,00 m/s88 Lux
Tue 17, 08:08 AM8,2 ºC88,8 %965 hPa0,00 l/m2 0º N 0,0 m/s0,00 m/s141.3 Lux
Tue 17, 08:18 AM8,6 ºC88,1 %965 hPa0,00 l/m2 0º N 0,0 m/s0,00 m/s231 Lux
Tue 17, 08:28 AM7,7 ºC89,7 %965 hPa0,00 l/m2 0º N 0,0 m/s0,00 m/s277.9 Lux
Tue 17, 08:58 AM8,7 ºC90,1 %965 hPa0,00 l/m2 0º N 0,0 m/s0,00 m/s478.2 Lux
Tue 17, 09:08 AM9,1 ºC88,9 %965 hPa0,00 l/m2 0º N 0,0 m/s0,00 m/s587.4 Lux
Tue 17, 09:18 AM9,4 ºC88,6 %965 hPa0,00 l/m2 0º N 0,0 m/s0,00 m/s887.7 Lux
Tue 17, 09:28 AM10,0 ºC86,9 %965 hPa0,00 l/m2 0º N 0,0 m/s0,00 m/s1823.7 Lux
Tue 17, 09:38 AM11,4 ºC82,1 %965 hPa0,00 l/m2 0º N 0,0 m/s0,00 m/s2426.9 Lux
Tue 17, 09:48 AM13,5 ºC72,1 %965 hPa0,00 l/m2 0º N 0,0 m/s0,00 m/s2841.9 Lux
Tue 17, 09:58 AM15,0 ºC64,1 %965 hPa0,00 l/m2 0º N 0,0 m/s0,00 m/s2308 Lux
Tue 17, 10:08 AM17,9 ºC62,7 %965 hPa0,00 l/m2 0º N 0,0 m/s0,00 m/s2554.9 Lux
Tue 17, 10:22 AM17,8 ºC56,3 %965 hPa0,00 l/m2 292,5º ONO 0,0 m/s0,00 m/s2841.9 Lux
Tue 17, 10:32 AM18,8 ºC54,3 %965 hPa0,00 l/m2 247,5º OSO 0,0 m/s0,00 m/s3003.2 Lux
Tue 17, 10:42 AM19,8 ºC50,9 %965 hPa0,00 l/m2 247,5º OSO 0,0 m/s0,00 m/s3575 Lux
Tue 17, 10:52 AM20,2 ºC47,4 %965 hPa0,00 l/m2 292,5º ONO 0,0 m/s0,00 m/s4318.8 Lux
Tue 17, 11:02 AM21,4 ºC42,4 %965 hPa0,00 l/m2 315º NO 0,0 m/s0,00 m/s4318.8 Lux
Tue 17, 11:12 AM22,0 ºC44,6 %965 hPa0,00 l/m2 315º NO 0,0 m/s0,00 m/s3800.8 Lux
Tue 17, 11:22 AM21,5 ºC44,1 %966 hPa0,00 l/m2 135º SE 0,0 m/s0,00 m/s3800.8 Lux
Tue 17, 11:32 AM21,4 ºC45,3 %965 hPa0,00 l/m2 0º N 0,0 m/s0,00 m/s4616.8 Lux
Tue 17, 11:42 AM22,5 ºC42,4 %966 hPa0,00 l/m2 0º N 0,0 m/s0,20 m/s4616.8 Lux
Tue 17, 11:52 AM23,1 ºC38,2 %965 hPa0,00 l/m2 0º N 0,1 m/s0,20 m/s4318.8 Lux
Tue 17, 12:22 PM24,6 ºC37,3 %966 hPa0,00 l/m2 0º N 0,0 m/s0,00 m/s5309.4 Lux
Tue 17, 12:32 PM25,0 ºC35,3 %966 hPa0,00 l/m2 0º N 0,0 m/s0,00 m/s5309.4 Lux
Tue 17, 12:42 PM25,0 ºC35,2 %966 hPa0,00 l/m2 0º N 0,0 m/s0,00 m/s5309.4 Lux
Tue 17, 12:52 PM25,6 ºC32,2 %965 hPa0,00 l/m2 225º SO 0,0 m/s0,00 m/s5713.1 Lux
Tue 17, 01:02 PM26,4 ºC30,5 %965 hPa0,00 l/m2 270º O 0,0 m/s0,00 m/s5309.4 Lux
Tue 17, 01:12 PM26,7 ºC28,5 %965 hPa0,00 l/m2 67,5º ENE 0,0 m/s0,10 m/s5309.4 Lux
Tue 17, 01:22 PM26,3 ºC27,8 %965 hPa0,00 l/m2 135º SE 0,0 m/s0,10 m/s5713.1 Lux
Tue 17, 01:52 PM26,5 ºC27,3 %965 hPa0,00 l/m2 135º SE 0,0 m/s0,10 m/s5713.1 Lux
Tue 17, 02:12 PM26,0 ºC29,1 %965 hPa0,00 l/m2 90º E 0,1 m/s0,30 m/s5309.4 Lux
Tue 17, 02:22 PM25,8 ºC29,4 %965 hPa0,00 l/m2 45º NE 0,0 m/s0,20 m/s5713.1 Lux
Tue 17, 02:32 PM25,5 ºC30,6 %965 hPa0,00 l/m2 0º N 0,0 m/s0,10 m/s5309.4 Lux
Tue 17, 02:41 PM25,5 ºC30,5 %965 hPa0,00 l/m2 157,5º SSE 0,0 m/s0,00 m/s5309.4 Lux
Tue 17, 02:51 PM25,5 ºC28,9 %965 hPa0,00 l/m2 180º S 0,0 m/s0,10 m/s4945.6 Lux
Tue 17, 03:01 PM24,8 ºC30,8 %965 hPa0,00 l/m2 337,5º NNO 0,1 m/s0,50 m/s4945.6 Lux
Tue 17, 03:11 PM24,7 ºC31,5 %965 hPa0,00 l/m2 0º N 0,0 m/s0,20 m/s4945.6 Lux
Tue 17, 03:21 PM24,4 ºC31,8 %965 hPa0,00 l/m2 292,5º ONO 0,1 m/s0,30 m/s4945.6 Lux
Tue 17, 03:31 PM25,0 ºC31,2 %965 hPa0,00 l/m2 90º E 0,0 m/s0,00 m/s4945.6 Lux
Tue 17, 03:41 PM25,1 ºC30,6 %965 hPa0,00 l/m2 225º SO 0,0 m/s0,10 m/s4616.8 Lux
Tue 17, 03:51 PM25,1 ºC31,5 %965 hPa0,00 l/m2 0º N 0,0 m/s0,20 m/s4945.6 Lux
Tue 17, 04:01 PM25,1 ºC31,6 %965 hPa0,00 l/m2 0º N 0,2 m/s1,20 m/s5309.4 Lux
Tue 17, 04:11 PM24,6 ºC32,1 %965 hPa0,00 l/m2 90º E 0,1 m/s0,40 m/s4616.8 Lux
Tue 17, 04:21 PM25,4 ºC30,6 %964 hPa0,00 l/m2 157,5º SSE 0,0 m/s0,20 m/s4616.8 Lux
Tue 17, 04:31 PM25,2 ºC30,4 %964 hPa0,00 l/m2 0º N 0,1 m/s0,20 m/s4047.8 Lux
Tue 17, 04:41 PM25,0 ºC31,4 %964 hPa0,00 l/m2 45º NE 0,1 m/s0,20 m/s4318.8 Lux
Tue 17, 04:51 PM24,8 ºC31,5 %964 hPa0,00 l/m2 0º N 0,0 m/s0,10 m/s4318.8 Lux
Tue 17, 05:01 PM24,8 ºC31,5 %964 hPa0,00 l/m2 0º N 0,0 m/s0,40 m/s4047.8 Lux
Tue 17, 05:11 PM25,0 ºC31,2 %964 hPa0,00 l/m2 180º S 0,0 m/s0,10 m/s3800.8 Lux
Tue 17, 05:21 PM25,1 ºC30,5 %964 hPa0,00 l/m2 90º E 0,0 m/s0,00 m/s4047.8 Lux
Tue 17, 05:31 PM25,3 ºC30,8 %964 hPa0,00 l/m2 135º SE 0,1 m/s0,60 m/s3575 Lux
Tue 17, 05:41 PM24,4 ºC31,5 %964 hPa0,00 l/m2 157,5º SSE 0,1 m/s0,80 m/s3368.1 Lux
Tue 17, 05:51 PM25,0 ºC31,3 %964 hPa0,00 l/m2 157,5º SSE 0,2 m/s1,00 m/s3800.8 Lux
Tue 17, 06:01 PM23,4 ºC33,2 %964 hPa0,00 l/m2 135º SE 0,0 m/s0,20 m/s4047.8 Lux
Tue 17, 06:11 PM23,0 ºC34,4 %964 hPa0,00 l/m2 135º SE 0,1 m/s0,30 m/s4047.8 Lux
Tue 17, 06:21 PM22,7 ºC34,3 %964 hPa0,00 l/m2 157,5º SSE 0,1 m/s0,40 m/s3575 Lux
Tue 17, 06:31 PM22,4 ºC34,6 %964 hPa0,00 l/m2 45º NE 0,0 m/s0,20 m/s3800.8 Lux
Tue 17, 06:41 PM22,2 ºC35,6 %964 hPa0,00 l/m2 180º S 0,2 m/s1,90 m/s3178.1 Lux
Tue 17, 06:51 PM21,8 ºC35,4 %964 hPa0,00 l/m2 135º SE 0,0 m/s0,20 m/s3368.1 Lux
Tue 17, 07:01 PM21,7 ºC35,1 %964 hPa0,00 l/m2 157,5º SSE 0,1 m/s0,30 m/s3575 Lux
Tue 17, 07:11 PM21,8 ºC35,8 %964 hPa0,00 l/m2 135º SE 0,3 m/s1,00 m/s11428.3 Lux
Tue 17, 07:21 PM20,9 ºC38,0 %964 hPa0,00 l/m2 0º N 0,0 m/s0,20 m/s11428.3 Lux
Tue 17, 07:31 PM21,3 ºC38,3 %964 hPa0,00 l/m2 135º SE 0,0 m/s0,00 m/s5309.4 Lux
Tue 17, 07:41 PM21,0 ºC38,4 %964 hPa0,00 l/m2 135º SE 0,0 m/s0,00 m/s4047.8 Lux
Tue 17, 07:51 PM20,6 ºC39,1 %964 hPa0,00 l/m2 135º SE 0,0 m/s0,00 m/s3800.8 Lux
Tue 17, 08:01 PM20,5 ºC39,8 %964 hPa0,00 l/m2 157,5º SSE 0,0 m/s0,00 m/s2554.9 Lux
Tue 17, 08:11 PM19,9 ºC40,7 %964 hPa0,00 l/m2 45º NE 0,0 m/s0,00 m/s1670.6 Lux
Tue 17, 08:21 PM19,8 ºC40,9 %964 hPa0,00 l/m2 180º S 0,0 m/s0,00 m/s1308.8 Lux
Tue 17, 08:31 PM19,4 ºC42,6 %964 hPa0,00 l/m2 157,5º SSE 0,0 m/s0,00 m/s859.6 Lux
Tue 17, 08:41 PM19,1 ºC43,5 %964 hPa0,00 l/m2 157,5º SSE 0,0 m/s0,00 m/s289 Lux
Tue 17, 08:51 PM18,6 ºC45,0 %964 hPa0,00 l/m2 225º SO 0,0 m/s0,00 m/s113.7 Lux
Tue 17, 09:01 PM18,2 ºC46,7 %964 hPa0,00 l/m2 0º N 0,0 m/s0,00 m/s24.6 Lux
Tue 17, 09:11 PM17,9 ºC47,5 %964 hPa0,00 l/m2 135º SE 0,0 m/s0,00 m/s5.1 Lux
Tue 17, 09:21 PM17,7 ºC48,2 %964 hPa0,00 l/m2 315º NO 0,0 m/s0,00 m/s2.6 Lux
Tue 17, 09:31 PM17,6 ºC49,2 %964 hPa0,00 l/m2 180º S 0,0 m/s0,00 m/s2.4 Lux
Tue 17, 09:41 PM17,4 ºC49,7 %964 hPa0,00 l/m2 202,5º SSO 0,0 m/s0,00 m/s2.3 Lux
Tue 17, 09:51 PM17,3 ºC50,3 %964 hPa0,00 l/m2 0º N 0,0 m/s0,00 m/s2.4 Lux
Tue 17, 10:01 PM17,2 ºC50,8 %964 hPa0,00 l/m2 90º E 0,0 m/s0,00 m/s2.3 Lux
Tue 17, 10:11 PM17,1 ºC51,8 %965 hPa0,00 l/m2 315º NO 0,0 m/s0,00 m/s2.4 Lux
Tue 17, 10:21 PM16,9 ºC52,1 %965 hPa0,00 l/m2 337,5º NNO 0,0 m/s0,00 m/s2.2 Lux
Tue 17, 10:31 PM16,6 ºC53,3 %965 hPa0,00 l/m2 247,5º OSO 0,0 m/s0,00 m/s2.3 Lux
Tue 17, 10:41 PM16,5 ºC52,8 %965 hPa0,00 l/m2 67,5º ENE 0,0 m/s0,00 m/s2.3 Lux
Tue 17, 10:51 PM16,2 ºC53,3 %965 hPa0,00 l/m2 315º NO 0,0 m/s0,00 m/s2.2 Lux
Tue 17, 11:01 PM16,0 ºC53,5 %965 hPa0,00 l/m2 180º S 0,0 m/s0,00 m/s2.3 Lux
Tue 17, 11:11 PM16,3 ºC50,8 %965 hPa0,00 l/m2 135º SE 0,0 m/s0,10 m/s2.3 Lux
Tue 17, 11:21 PM16,1 ºC50,2 %965 hPa0,00 l/m2 0º N 0,0 m/s0,00 m/s2.2 Lux
Tue 17, 11:31 PM16,1 ºC50,5 %965 hPa0,00 l/m2 135º SE 0,0 m/s0,00 m/s2.2 Lux
Tue 17, 11:41 PM15,8 ºC51,4 %965 hPa0,00 l/m2 157,5º SSE 0,0 m/s0,00 m/s2.2 Lux
Tue 17, 11:51 PM15,9 ºC48,4 %965 hPa0,00 l/m2 315º NO 0,0 m/s0,00 m/s2.2 Lux
WeatherStation © 2018